                ,  0.194,  0.291,  0.388,  0.485,  0.582,  0.679,  0.776,  0.873,  0.970,  1.067,  1.164,  1.261,  1.358,  1.455,  1.552,  1.650,  1.747,  1.844,  1.941,  2.038,  2.135,  2.232,  2.329,  2.426,  2.523,  2.620,  2.717,  2.814,  2.911,  3.008,  3.105,  3.202,  3.299,  3.396,  3.493,  3.590,  3.687,  3.784,  3.881,  3.978,  4.075,  4.172,  4.269,  4.366,  4.463,  4.560,  4.657,  4.754,  4.851,  4.949,  5.046,  5.143,  5.240,  5.337,  5.434,  5.531,  5.628,  5.725,  5.822,  5.919,  6.016,  6.113,  6.210,  6.307,  6.404,  6.501,  6.598,  6.695,  6.792,  6.889,  6.986,  7.083,  7.180,  7.277,  7.374,  7.471,  7.568,  7.665,  7.762,  7.859,  7.956,  8.053,  8.150,  8.248,  8.345,  8.442,  8.539,  8.636,  8.733,  8.830,  8.927,  9.024,  9.121,  9.218,  9.315,  9.412,  9.509,  9.606,  9.703
2008/10/01 00:00,   -0.7,   -1.2,   -2.3,   -3.3,   -4.0,   -2.6,  999.0,   -1.0,    1.3,    1.0,    0.8,    0.6,    1.0,    0.8,  999.0,  999.0,  999.0,    3.8,    4.0,    3.2,    3.0,  999.0,    3.7,    4.1,    3.7,    4.4,  999.0,  999.0,    3.3,    2.5,    1.9,  999.0,  999.0,  999.0,    2.2,  999.0,    3.4,  999.0,  999.0,  999.0,  999.0,  999.0,  999.0,  999.0,    1.5,    1.5,  999.0,  999.0,  999.0,  999.0,  999.0,  999.0,  999.0,  999.0,  999.0,  999.0,  999.0,  999.0,  999.0,  999.0,  999.0,  999.0,  999.0,  999.0,  999.0,  999.0,  999.0,  999.0,  999.0,  999.0,  999.0,  999.0,  999.0,   -7.5,   -7.2,   -6.6,   -5.5,   -6.5,   -6.5,   -6.9,   -7.6,  999.0,  999.0,  999.0,  999.0,  999.0,  999.0,  999.0,  999.0,  999.0,  999.0,  999.0,  999.0,  999.0,  999.0,  999.0,  999.0,  999.0,  999.0
2008/10/01 00:10,  999.0,   -0.8,   -1.6,   -1.2,   -3.1,  999.0,   -1.5,   -0.2,    0.7,    1.0,    1.0,    0.8,    1.2,    0.9,  999.0,    2.6,    3.5,    4.3,    3.8,    3.3,  999.0,    4.1,    4.2,    4.2,    3.6,    4.3,    5.0,  999.0,    3.0,    2.1,    1.9,  999.0,  999.0,    0.8,    1.6,  999.0,  999.0,    2.3,  999.0,  999.0,  999.0,  999.0,  999.0,  999.0,  999.0,  999.0,  999.0,  999.0,    0.3,  999.0,  999.0,    1.6,  999.0,  999.0,  999.0,  999.0,  999.0,  999.0,  999.0,  999.0,  999.0,  999.0,  999.0,  999.0,  999.0,  999.0,  999.0,  999.0,  999.0,  999.0,  999.0,  999.0,   -6.8,   -7.3,   -7.0,   -7.0,   -6.8,   -7.0,   -7.6,   -7.9,   -8.8,  999.0,  999.0,  999.0,  999.0,  999.0,  999.0,  999.0,  999.0,  999.0,  999.0,  999.0,  999.0,  999.0,  999.0,  999.0,  999.0,  999.0,  999.0
2008/10/01 00:20,   -1.9,   -2.2,   -3.4,   -3.2,  999.0,   -2.2,  999.0,    0.0,  999.0,    1.1,    1.1,    1.2,    1.6,    1.2,  999.0,    3.1,    4.3,    4.8,  999.0,  999.0,    4.0,    4.6,    4.4,    4.6,    3.9,    4.4,    4.7,  999.0,    2.0,    1.2,    0.3,  999.0,  999.0,   -0.1,    0.2,    0.3,  999.0,  999.0,  999.0,  999.0,  999.0,  999.0,  999.0,  999.0,  999.0,  999.0,    1.4,    1.5,  999.0,  999.0,  999.0,  999.0,  999.0,  999.0,  999.0,  999.0,  999.0,  999.0,  999.0,  999.0,   -0.1,   -1.9,   -3.1,   -3.8,   -5.2,   -6.3,   -7.4,   -7.8,   -7.4,   -7.7,   -7.7,   -7.0,   -6.8,   -6.9,   -7.2,   -7.1,   -6.8,   -6.7,   -7.1,   -7.3,  999.0,  999.0,  999.0,  999.0,  999.0,  999.0,  999.0,  999.0,  999.0,  999.0,  999.0,  999.0,  999.0,  999.0,  999.0,  999.0,  999.0,  999.0,  999.0
2008/10/01 00:30,  999.0,   -2.9,   -3.1,   -2.5,   -3.0,   -1.5,   -0.9,   -0.6,  999.0,    0.6,    0.5,    1.0,    1.4,    1.0,    1.6,    2.7,    3.9,    4.5,    4.0,  999.0,  999.0,    4.6,    4.4,    4.9,    3.7,    4.3,    4.5,    3.5,    2.5,    1.5,    1.2,  999.0,  999.0,  999.0,    0.7,    1.4,  999.0,  999.0,  999.0,  999.0,  999.0,  999.0,  999.0,  999.0,  999.0,    1.8,  999.0,  999.0,  999.0,  999.0,  999.0,  999.0,  999.0,  999.0,  999.0,    1.1,    1.6,    1.9,    2.1,    1.4,   -0.3,  999.0,  999.0,   -3.7,   -4.8,   -6.4,   -7.2,   -7.4,   -6.8,   -6.5,   -6.8,   -7.2,   -7.4,   -7.4,   -7.3,   -7.2,   -7.1,   -6.8,   -6.6,  999.0,  999.0,  999.0,  999.0,  999.0,  999.0,  999.0,  999.0,  999.0,  999.0,  999.0,  999.0,  999.0,  999.0,  999.0,  999.0,  999.0,  999.0,  999.0,  999.0
2008/10/01 00:40,   -0.2,   -2.4,   -2.1,   -1.5,   -1.5,   -0.9,   -0.9,   -0.4,    0.4,    0.6,    0.6,    0.8,    1.2,    1.2,    1.9,    3.1,    4.2,  999.0,  999.0,  999.0,    4.2,    4.5,    4.8,    4.1,    4.2,    4.4,    4.5,    3.7,    2.2,    1.6,    1.1,  999.0,    0.2,    0.2,    0.6,  999.0,  999.0,  999.0,  999.0,  999.0,  999.0,  999.0,  999.0,  999.0,  999.0,  999.0,    2.3,    2.1,  999.0,  999.0,  999.0,  999.0,  999.0,  999.0,  999.0,    2.0,    2.5,    2.9,  999.0,  999.0,  999.0,   -0.7,   -1.9,   -3.1,   -4.6,   -6.0,   -6.6,   -6.6,   -6.5,   -6.3,   -6.1,   -6.0,   -6.3,   -6.4,   -6.4,   -6.4,   -5.9,   -5.8,   -5.6,   -5.8,  999.0,  999.0,  999.0,  999.0,  999.0,  999.0,  999.0,  999.0,  999.0,  999.0,  999.0,  999.0,  999.0,  999.0,  999.0,  999.0,  999.0,  999.0,  999.0
2008/10/01 00:50,   -0.5,   -2.4,   -1.6,   -1.2,   -0.8,   -1.1,   -0.7,   -0.7,    0.6,    0.5,    0.7,    1.0,    1.4,    1.4,    2.2,    3.9,    4.2,    4.6,  999.0,  999.0,  999.0,  999.0,    4.6,  999.0,    3.9,    4.3,    4.1,    2.8,    1.6,    1.2,  999.0,  999.0,   -0.5,    0.1,    0.2,  999.0,  999.0,  999.0,  999.0,  999.0,  999.0,  999.0,  999.0,  999.0,  999.0,  999.0,  999.0,    2.4,  999.0,  999.0,  999.0,  999.0,  999.0,  999.0,  999.0,  999.0,    2.5,    3.3,    3.4,    2.1,    0.7,   -0.5,   -1.7,   -2.7,   -3.8,   -5.0,   -5.6,   -5.5,   -5.6,   -5.7,   -5.6,   -5.8,   -6.4,   -6.3,   -5.7,   -5.2,   -4.7,   -5.0,   -5.4,  999.0,  999.0,  999.0,  999.0,  999.0,  999.0,  999.0,  999.0,  999.0,  999.0,  999.0,  999.0,  999.0,  999.0,  999.0,  999.0,  999.0,  999.0,  999.0,  999.0
2008/10/01 01:00,   -0.4,   -1.8,   -0.8,  999.0,   -0.2,   -0.7,   -0.3,    0.1,    0.5,    0.5,    0.6,    0.7,    1.7,    1.7,    2.0,    3.2,    3.8,    4.4,  999.0,    4.5,  999.0,  999.0,    4.2,    4.1,    3.8,    4.2,  999.0,    2.8,    1.8,    2.2,  999.0,  999.0,  999.0,  999.0,  999.0,  999.0,  999.0,  999.0,  999.0,  999.0,  999.0,  999.0,  999.0,  999.0,  999.0,  999.0,  999.0,  999.0,  999.0,  999.0,  999.0,  999.0,  999.0,  999.0,  999.0,  999.0,    2.0,    2.7,    3.1,    2.0,  999.0,    0.2,  999.0,  999.0,  999.0,  999.0,  999.0,  999.0,  999.0,   -5.6,   -5.4,   -5.8,   -6.0,   -5.6,   -4.9,   -4.7,   -4.4,  999.0,  999.0,  999.0,  999.0,  999.0,  999.0,  999.0,  999.0,  999.0,  999.0,  999.0,  999.0,  999.0,  999.0,  999.0,  999.0,  999.0,  999.0,  999.0,  999.0,  999.0,  999.0
2008/10/01 01:10,   -0.2,   -0.5,   -0.9,  999.0,  999.0,   -0.2,  999.0,  999.0,    0.7,    0.5,    0.2,    0.7,    1.5,    1.6,    1.8,    2.2,    3.2,    3.7,    4.3,    3.7,    4.1,  999.0,    3.7,    3.7,    3.3,    3.4,    2.6,  999.0,    1.3,    1.8,  999.0,  999.0,  999.0,  999.0,  999.0,  999.0,  999.0,  999.0,  999.0,  999.0,  999.0,  999.0,  999.0,  999.0,  999.0,  999.0,  999.0,  999.0,  999.0,  999.0,  999.0,    4.1,  999.0,  999.0,  999.0,  999.0,  999.0,  999.0,  999.0,  999.0,  999.0,  999.0,  999.0,  999.0,  999.0,  999.0,  999.0,  999.0,  999.0,  999.0,  999.0,  999.0,  999.0,  999.0,  999.0,  999.0,  999.0,  999.0,  999.0,  999.0,  999.0,  999.0,  999.0,  999.0,  999.0,  999.0,  999.0,  999.0,  999.0,  999.0,  999.0,  999.0,  999.0,  999.0,  999.0,  999.0,  999.0,  999.0,  999.0
2008/10/01 01:20,   -0.3,   -0.4,   -0.4,  999.0,  999.0,   -0.5,   -0.5,   -0.2,    0.1,   -0.0,    0.3,    0.5,    1.2,    1.3,    2.0,    3.2,    3.7,    4.2,    4.6,    4.1,  999.0,    4.5,    4.8,    4.3,    4.2,    4.1,  999.0,  999.0,    1.5,  999.0,  999.0,  999.0,  999.0,  999.0,  999.0,  999.0,  999.0,  999.0,  999.0,  999.0,  999.0,  999.0,  999.0,  999.0,  999.0,  999.0,  999.0,  999.0,    3.0,  999.0,  999.0,  999.0,  999.0,  999.0,  999.0,  999.0,  999.0,  999.0,  999.0,  999.0,  999.0,  999.0,  999.0,  999.0,  999.0,  999.0,  999.0,  999.0,  999.0,  999.0,  999.0,  999.0,  999.0,  999.0,  999.0,  999.0,  999.0,  999.0,  999.0,  999.0,  999.0,  999.0,  999.0,  999.0,  999.0,  999.0,  999.0,  999.0,  999.0,  999.0,  999.0,  999.0,  999.0,  999.0,  999.0,  999.0,  999.0,  999.0,  999.0
2008/10/01 01:30,   -0.3,   -0.2,    0.3,   -0.1,  999.0,    0.0,   -0.1,    0.7,    1.0,    1.2,    1.1,    1.1,    1.8,    2.0,    1.8,    2.9,    3.9,    4.0,    4.0,    4.8,    3.9,    4.7,    4.7,    4.4,    4.5,    4.3,    3.6,    3.1,    2.6,    1.5,    1.5,    1.6,    1.0,  999.0,  999.0,  999.0,  999.0,  999.0,  999.0,  999.0,  999.0,  999.0,  999.0,  999.0,  999.0,  999.0,  999.0,  999.0,  999.0,  999.0,  999.0,  999.0,  999.0,  999.0,  999.0,  999.0,  999.0,  999.0,  999.0,  999.0,  999.0,  999.0,  999.0,  999.0,  999.0,  999.0,  999.0,  999.0,  999.0,  999.0,  999.0,  999.0,  999.0,  999.0,  999.0,  999.0,  999.0,  999.0,  999.0,  999.0,  999.0,  999.0,  999.0,  999.0,  999.0,  999.0,  999.0,  999.0,  999.0,  999.0,  999.0,  999.0,  999.0,  999.0,  999.0,  999.0,  999.0,  999.0,  999.0
2008/10/01 01:40,   -0.5,    0.1,   -0.1,   -0.7,  999.0,   -0.3,    0.4,    0.7,    1.0,    0.9,    1.1,    1.2,    1.9,    2.0,    2.1,    2.7,    4.0,    4.2,    4.2,    4.2,  999.0,    4.1,    4.5,    4.4,    4.3,    4.2,    3.4,    2.1,    2.2,    0.7,    0.3,    0.5,    0.8,  999.0,  999.0,  999.0,  999.0,  999.0,  999.0,  999.0,  999.0,  999.0,  999.0,  999.0,  999.0,  999.0,  999.0,  999.0,  999.0,  999.0,    2.1,  999.0,  999.0,  999.0,  999.0,  999.0,  999.0,  999.0,  999.0,  999.0,  999.0,  999.0,   -0.6,   -1.9,   -2.3,  999.0,  999.0,  999.0,   -4.4,   -4.9,   -5.0,   -5.0,   -4.8,   -4.7,   -4.6,   -4.2,   -3.0,   -2.5,   -1.6,  999.0,  999.0,  999.0,  999.0,  999.0,  999.0,  999.0,  999.0,  999.0,  999.0,  999.0,  999.0,  999.0,  999.0,  999.0,  999.0,  999.0,  999.0,  999.0,  999.0
2008/10/01 01:50,   -0.5,    0.0,   -0.2,   -0.7,   -0.5,   -0.4,   -0.3,    0.4,    0.7,    0.7,    0.7,    1.1,    1.8,    1.9,    1.9,    2.9,    3.7,    4.0,  999.0,  999.0,  999.0,    4.8,    4.9,    5.0,    5.0,    5.5,    5.1,    4.4,    3.5,    2.4,    1.4,    1.2,  999.0,  999.0,    3.2,  999.0,  999.0,  999.0,  999.0,  999.0,  999.0,  999.0,  999.0,  999.0,  999.0,  999.0,  999.0,  999.0,  999.0,  999.0,  999.0,  999.0,  999.0,  999.0,  999.0,  999.0,  999.0,  999.0,  999.0,    2.6,    1.5,    0.9,   -0.6,   -1.6,   -2.1,   -2.4,   -3.0,   -3.9,   -4.8,   -5.0,   -5.0,   -4.8,   -4.5,   -3.8,   -3.7,   -3.5,   -2.5,   -1.6,   -1.8,  999.0,  999.0,  999.0,  999.0,  999.0,  999.0,  999.0,  999.0,  999.0,  999.0,  999.0,  999.0,  999.0,  999.0,  999.0,  999.0,  999.0,  999.0,  999.0,  999.0
2008/10/01 02:00,   -2.3,   -0.5,   -0.4,   -0.9,   -0.8,    0.0,   -0.4,    0.2,    0.4,    0.6,    0.4,    0.7,    1.4,    1.6,    1.7,    2.7,    3.3,    4.0,    3.4,    3.8,    4.8,    5.5,    5.4,    6.1,    6.7,    6.8,    6.4,    4.8,    3.7,  999.0,  999.0,    1.8,    1.5,    1.7,  999.0,  999.0,  999.0,  999.0,  999.0,  999.0,  999.0,  999.0,  999.0,  999.0,  999.0,  999.0,    3.7,    4.0,  999.0,  999.0,  999.0,  999.0,  999.0,    3.0,    2.7,    2.1,    2.2,    1.9,    2.0,    1.8,    0.5,   -1.0,   -2.5,   -3.0,   -3.4,   -3.4,   -3.8,   -4.3,   -4.8,   -5.2,   -4.9,   -5.2,   -5.0,   -4.0,   -3.3,   -2.2,   -2.3,   -1.6,   -1.2,  999.0,  999.0,  999.0,  999.0,  999.0,  999.0,  999.0,  999.0,  999.0,  999.0,  999.0,  999.0,  999.0,  999.0,  999.0,  999.0,  999.0,  999.0,  999.0,  999.0
2008/10/01 02:10,   -0.2,   -0.5,   -0.3,   -0.9,   -0.7,  999.0,   -0.2,    0.3,    0.3,    0.6,    0.9,    0.8,    1.0,    1.1,    1.5,    2.1,    3.0,    2.8,    2.9,    2.9,    3.7,    4.1,    4.1,    4.7,    4.9,    5.1,    5.5,    3.9,  999.0,  999.0,  999.0,  999.0,  999.0,    1.8,  999.0,    3.8,  999.0,  999.0,  999.0,  999.0,  999.0,  999.0,  999.0,  999.0,  999.0,    3.3,    3.8,    3.9,  999.0,  999.0,    4.6,    3.6,    3.5,    2.9,    2.4,    2.2,    2.4,    2.8,  999.0,  999.0,    0.9,   -0.8,   -2.0,   -2.6,   -3.0,   -3.6,   -4.1,   -3.9,   -3.8,   -4.3,   -3.2,   -4.8,   -4.3,   -3.3,   -2.1,  999.0,  999.0,  999.0,  999.0,  999.0,  999.0,  999.0,  999.0,  999.0,  999.0,  999.0,  999.0,  999.0,  999.0,  999.0,  999.0,  999.0,  999.0,  999.0,  999.0,  999.0,  999.0,  999.0,  999.0
2008/10/01 02:20,   -0.7,   -0.3,    0.2,   -0.9,   -0.7,   -0.6,   -0.1,    0.2,    0.5,    0.6,    1.1,    1.0,    1.2,    1.6,    1.3,    2.0,    3.1,    3.0,    2.9,    3.2,    3.5,    3.7,    3.8,    3.6,    3.7,    3.7,    4.1,    3.6,  999.0,  999.0,  999.0,  999.0,  999.0,  999.0,  999.0,    3.8,  999.0,  999.0,  999.0,  999.0,  999.0,  999.0,  999.0,  999.0,  999.0,  999.0,  999.0,    3.0,    3.4,    3.5,    3.4,    3.5,    3.6,    3.4,    2.6,    2.3,    2.2,    2.5,    2.3,    1.8,    0.9,   -0.2,   -1.4,   -1.8,   -2.4,   -3.3,   -4.2,   -4.2,   -3.8,   -4.0,   -4.3,   -4.6,   -4.0,   -4.5,  999.0,   -2.9,  999.0,  999.0,  999.0,  999.0,  999.0,  999.0,  999.0,  999.0,  999.0,  999.0,  999.0,  999.0,  999.0,  999.0,  999.0,  999.0,  999.0,  999.0,  999.0,  999.0,  999.0,  999.0,  999.0
2008/10/01 02:30,   -0.4,    0.1,    0.4,   -0.9,  999.0,  999.0,    0.1,    0.8,    0.8,    1.0,    1.3,    1.2,    1.3,    1.7,    1.6,    2.0,    2.8,    2.5,    2.7,    2.7,    3.1,    3.5,    4.0,    3.1,    3.4,    3.5,    3.5,    3.2,  999.0,  999.0,  999.0,    2.3,    1.2,  999.0,  999.0,    3.2,    3.7,  999.0,  999.0,    3.3,  999.0,    3.5,    4.3,  999.0,  999.0,  999.0,  999.0,  999.0,  999.0,  999.0,    3.9,    3.1,    3.6,    2.6,    2.9,    2.4,    2.2,    2.6,    2.2,    1.4,    0.5,   -0.5,   -1.4,   -2.2,   -2.5,   -2.9,   -3.2,   -3.5,   -3.3,   -3.4,   -3.8,   -3.6,   -2.9,   -2.6,  999.0,   -2.6,   -2.2,  999.0,  999.0,  999.0,  999.0,  999.0,  999.0,  999.0,  999.0,  999.0,  999.0,  999.0,  999.0,  999.0,  999.0,  999.0,  999.0,  999.0,  999.0,  999.0,  999.0,  999.0,  999.0
2008/10/01 02:40,   -0.5,   -0.1,   -0.1,   -0.7,   -0.8,   -0.2,    0.0,    0.5,    0.9,    0.9,    0.9,    1.3,    1.4,    1.4,    2.1,    2.8,    3.1,    3.1,    3.1,    3.4,    3.9,    3.7,    3.2,    3.1,    3.8,    3.7,    4.2,    4.4,    4.1,  999.0,  999.0,    1.8,    1.8,  999.0,    2.6,    3.5,    3.7,  999.0,  999.0,  999.0,    3.4,    4.1,    4.6,  999.0,  999.0,  999.0,  999.0,  999.0,  999.0,  999.0,    1.8,    2.0,    2.9,    2.8,    2.8,    2.7,    2.4,    2.4,    2.7,    2.0,    1.2,    1.0,   -0.1,   -1.0,   -1.4,   -1.7,   -2.2,   -2.8,   -3.0,   -2.8,   -3.2,   -2.8,   -2.7,   -2.5,  999.0,  999.0,  999.0,  999.0,  999.0,  999.0,  999.0,  999.0,  999.0,  999.0,  999.0,  999.0,  999.0,  999.0,  999.0,  999.0,  999.0,  999.0,  999.0,  999.0,  999.0,  999.0,  999.0,  999.0,  999.0
2008/10/01 02:50,   -0.3,    0.1,   -0.1,   -0.3,   -0.5,   -0.2,    0.3,    0.6,    1.0,    1.1,    1.1,    1.1,    1.1,    1.4,    1.6,    2.5,  999.0,    2.6,    2.7,    2.9,    3.4,    3.5,    2.9,    3.7,    4.2,    4.4,    4.2,    3.9,    3.3,  999.0,  999.0,  999.0,  999.0,    1.8,    3.1,    3.9,    3.6,    3.8,  999.0,  999.0,    2.7,    3.7,    4.0,    3.9,  999.0,  999.0,  999.0,  999.0,  999.0,  999.0,  999.0,  999.0,  999.0,  999.0,    2.2,    2.3,    2.0,    1.9,    2.0,    1.6,    0.7,    0.6,   -0.4,   -1.4,   -1.5,   -2.0,   -2.5,   -2.3,   -2.6,   -2.7,   -2.2,  999.0,  999.0,  999.0,  999.0,  999.0,  999.0,  999.0,  999.0,  999.0,  999.0,  999.0,  999.0,  999.0,  999.0,  999.0,  999.0,  999.0,  999.0,  999.0,  999.0,  999.0,  999.0,  999.0,  999.0,  999.0,  999.0,  999.0,  999.0
2008/10/01 03:00,  999.0,    0.1,  999.0,    0.2,   -0.1,    0.2,    0.4,    0.9,    1.3,    1.3,    1.6,    1.6,    1.7,    1.8,    2.0,    3.0,  999.0,    2.7,    3.2,    3.5,    3.8,    4.7,    4.6,    4.7,    4.5,    5.0,    4.9,    4.9,    3.5,    3.7,  999.0,  999.0,  999.0,  999.0,    2.4,    3.3,    3.1,    2.7,  999.0,  999.0,    2.6,    3.1,  999.0,    3.1,  999.0,    1.3,  999.0,  999.0,  999.0,  999.0,  999.0,  999.0,    1.7,    1.5,    1.5,    1.4,    1.4,    1.5,    1.5,    1.2,    0.6,    0.3,   -0.3,   -1.3,   -2.2,   -2.0,  999.0,  999.0,  999.0,  999.0,  999.0,  999.0,  999.0,  999.0,  999.0,  999.0,  999.0,  999.0,  999.0,  999.0,  999.0,  999.0,  999.0,  999.0,  999.0,  999.0,  999.0,  999.0,  999.0,  999.0,  999.0,  999.0,  999.0,  999.0,  999.0,  999.0,  999.0,  999.0,  999.0
2008/10/01 03:10,    0.5,    0.6,    0.4,  999.0,    0.6,    0.5,    0.7,    0.9,    1.3,    1.6,    1.6,    1.5,    1.9,    1.8,    2.2,    3.0,    3.0,    3.2,    3.5,    4.0,    4.6,    5.5,    5.4,    5.2,    5.0,    5.2,    5.2,    5.2,    4.7,    3.1,    2.6,  999.0,    0.7,    1.4,    2.1,    2.3,    2.5,    2.2,  999.0,  999.0,    1.7,    2.0,  999.0,  999.0,  999.0,  999.0,  999.0,  999.0,  999.0,  999.0,  999.0,  999.0,  999.0,    2.5,  999.0,    1.6,    1.5,    1.5,    1.6,    1.3,    0.8,    0.6,   -0.4,   -1.1,  999.0,  999.0,  999.0,  999.0,  999.0,  999.0,  999.0,  999.0,  999.0,  999.0,  999.0,  999.0,  999.0,  999.0,  999.0,  999.0,  999.0,  999.0,  999.0,  999.0,  999.0,  999.0,  999.0,  999.0,  999.0,  999.0,  999.0,  999.0,  999.0,  999.0,  999.0,  999.0,  999.0,  999.0,  999.0
2008/10/01 03:20,    0.1,    0.6,  999.0,    0.4,    0.1,    0.3,    0.4,    0.9,    1.2,    1.4,    1.4,    1.3,    1.6,    1.8,    2.3,    3.0,    3.0,    3.0,    3.5,    4.0,    4.7,    5.2,    4.9,    4.8,    5.2,    5.3,    5.1,    4.6,    4.7,    3.2,    2.8,  999.0,  999.0,  999.0,    2.3,    2.6,    2.9,    2.6,  999.0,  999.0,  999.0,    3.4,    3.1,  999.0,  999.0,  999.0,  999.0,  999.0,  999.0,  999.0,  999.0,  999.0,  999.0,  999.0,  999.0,  999.0,  999.0,  999.0,    2.1,  999.0,  999.0,  999.0,  999.0,  999.0,  999.0,  999.0,  999.0,  999.0,  999.0,  999.0,  999.0,  999.0,  999.0,  999.0,  999.0,  999.0,  999.0,  999.0,  999.0,  999.0,  999.0,  999.0,  999.0,  999.0,  999.0,  999.0,  999.0,  999.0,  999.0,  999.0,  999.0,  999.0,  999.0,  999.0,  999.0,  999.0,  999.0,  999.0,  999.0
2008/10/01 03:30,  999.0,    0.8,    0.6,   -0.5,   -0.4,    0.1,   -0.1,    0.5,    1.0,    1.1,    1.3,    1.2,    1.7,    1.8,    2.4,    3.1,    2.8,    3.0,    3.5,    4.3,    4.9,    5.1,    4.6,    4.8,    5.6,    5.8,    4.9,    4.9,    4.8,    4.0,    3.7,  999.0,    2.3,    2.6,    2.7,    3.5,    4.5,    3.6,    2.8,  999.0,  999.0,  999.0,    3.3,  999.0,  999.0,  999.0,  999.0,  999.0,  999.0,  999.0,  999.0,  999.0,  999.0,  999.0,  999.0,  999.0,  999.0,  999.0,  999.0,  999.0,  999.0,  999.0,  999.0,  999.0,  999.0,  999.0,  999.0,  999.0,  999.0,  999.0,  999.0,  999.0,  999.0,  999.0,  999.0,  999.0,  999.0,  999.0,  999.0,  999.0,  999.0,  999.0,  999.0,  999.0,  999.0,  999.0,  999.0,  999.0,  999.0,  999.0,  999.0,  999.0,  999.0,  999.0,  999.0,  999.0,  999.0,  999.0,  999.0
2008/10/01 03:40,   -0.3,    0.3,  999.0,   -0.5,    0.2,    0.7,    0.0,    0.7,    0.6,    1.1,    1.1,    1.1,    1.5,    1.6,    2.1,    2.4,    2.6,    2.9,    3.7,    4.1,    4.3,    4.7,    4.9,  999.0,    5.8,    5.9,    5.3,    5.1,    4.6,    3.9,    3.4,  999.0,  999.0,  999.0,    2.6,    3.3,    3.8,    3.0,    2.8,  999.0,  999.0,  999.0,  999.0,  999.0,    1.8,  999.0,  999.0,  999.0,  999.0,  999.0,  999.0,  999.0,  999.0,  999.0,  999.0,  999.0,  999.0,  999.0,  999.0,  999.0,  999.0,  999.0,  999.0,  999.0,  999.0,  999.0,  999.0,  999.0,  999.0,  999.0,  999.0,  999.0,  999.0,  999.0,  999.0,  999.0,  999.0,  999.0,  999.0,  999.0,  999.0,  999.0,  999.0,  999.0,  999.0,  999.0,  999.0,  999.0,  999.0,  999.0,  999.0,  999.0,  999.0,  999.0,  999.0,  999.0,  999.0,  999.0,  999.0
2008/10/01 03:50,    0.4,    0.5,    0.6,    0.0,    0.3,    0.1,    0.3,    0.6,    0.5,    0.8,    1.2,    0.8,    1.6,    1.5,    1.8,    2.3,    2.3,    2.7,    3.4,    3.8,    4.0,    4.2,    4.3,    4.8,    5.3,    5.1,    5.1,    4.8,    4.3,    3.8,    3.3,    3.1,    1.9,    1.8,    2.4,    3.1,    3.2,    2.6,    2.6,    2.4,    3.1,  999.0,  999.0,  999.0,  999.0,  999.0,    3.0,  999.0,  999.0,  999.0,    2.8,  999.0,  999.0,  999.0,  999.0,  999.0,  999.0,  999.0,  999.0,  999.0,  999.0,  999.0,  999.0,  999.0,  999.0,  999.0,  999.0,  999.0,  999.0,  999.0,  999.0,  999.0,  999.0,  999.0,  999.0,  999.0,  999.0,  999.0,  999.0,  999.0,  999.0,  999.0,  999.0,  999.0,  999.0,  999.0,  999.0,  999.0,  999.0,  999.0,  999.0,  999.0,    2.5,  999.0,  999.0,  999.0,  999.0,  999.0,  999.0
2008/10/01 04:00,    0.1,    0.3,    0.1,   -0.3,   -0.5,   -0.1,    0.4,    0.1,    0.2,    0.3,    0.5,    0.5,    0.8,    0.9,    1.4,  999.0,    2.4,    2.6,    3.1,    3.3,    3.5,    3.5,    4.1,    4.5,    4.8,    5.0,    4.6,    5.3,    4.9,    4.2,    3.3,    3.1,  999.0,    2.7,    2.5,    3.2,    3.5,    2.3,    2.2,    2.8,    2.7,    3.5,    3.7,  999.0,  999.0,  999.0,  999.0,  999.0,  999.0,    2.9,  999.0,  999.0,  999.0,  999.0,  999.0,  999.0,  999.0,  999.0,  999.0,  999.0,  999.0,  999.0,  999.0,  999.0,  999.0,  999.0,  999.0,  999.0,  999.0,  999.0,  999.0,  999.0,  999.0,  999.0,  999.0,  999.0,  999.0,  999.0,  999.0,  999.0,  999.0,  999.0,  999.0,  999.0,  999.0,  999.0,  999.0,  999.0,  999.0,  999.0,    2.2,  999.0,  999.0,  999.0,  999.0,  999.0,  999.0,  999.0,  999.0
2008/10/01 04:10,   -0.0,   -0.1,   -0.3,   -0.4,  999.0,    0.1,   -0.2,    0.2,    0.5,    0.1,    0.2,    0.6,    0.8,    1.1,    1.2,    1.7,    2.2,    2.6,    3.0,    3.1,    3.0,    3.7,    4.0,    4.5,    4.7,    4.9,    4.7,    4.6,    4.9,    4.3,    3.7,    3.1,  999.0,    2.2,    2.7,    3.6,    4.1,    3.1,    2.9,    3.0,    2.5,    2.8,    3.3,    2.8,    2.4,  999.0,  999.0,  999.0,  999.0,  999.0,  999.0,  999.0,  999.0,  999.0,  999.0,  999.0,  999.0,  999.0,  999.0,  999.0,  999.0,  999.0,  999.0,  999.0,  999.0,  999.0,  999.0,  999.0,  999.0,  999.0,  999.0,  999.0,  999.0,  999.0,  999.0,  999.0,  999.0,  999.0,  999.0,  999.0,  999.0,  999.0,  999.0,  999.0,  999.0,  999.0,  999.0,  999.0,  999.0,  999.0,  999.0,  999.0,  999.0,  999.0,  999.0,  999.0,  999.0,  999.0,  999.0
2008/10/01 04:20,  999.0,   -0.3,   -0.6,   -0.3,    0.2,   -0.2,   -0.1,    0.1,  999.0,    0.0,    0.1,    0.5,    0.8,    0.8,    1.0,    1.4,    1.6,    2.0,    2.4,    2.4,    2.8,    3.7,    4.0,    4.2,    4.5,    4.6,    4.4,    4.2,    4.2,    4.7,    3.9,    3.0,    3.2,    2.4,    2.9,    3.8,    4.3,    3.5,    3.7,    3.6,    2.2,    3.3,    3.7,  999.0,    3.1,  999.0,  999.0,  999.0,  999.0,    2.6,  999.0,  999.0,  999.0,  999.0,  999.0,  999.0,  999.0,  999.0,  999.0,  999.0,  999.0,  999.0,  999.0,  999.0,  999.0,  999.0,  999.0,  999.0,  999.0,  999.0,  999.0,  999.0,  999.0,  999.0,  999.0,  999.0,  999.0,  999.0,  999.0,  999.0,  999.0,  999.0,  999.0,  999.0,  999.0,  999.0,  999.0,  999.0,  999.0,  999.0,  999.0,  999.0,  999.0,    1.6,  999.0,  999.0,  999.0,  999.0,  999.0
2008/10/01 04:30,  999.0,   -0.6,   -0.7,   -0.4,  999.0,    0.2,    0.3,   -0.0,    0.3,    0.3,    0.6,    1.0,    1.0,    1.8,    1.4,    1.9,    2.2,    2.4,    2.8,    2.9,    3.2,    3.7,    3.8,    4.3,    4.8,    5.1,    4.8,    4.6,    4.8,    4.9,    4.9,    3.7,    3.3,    2.7,    3.0,    3.9,    4.1,    3.9,    3.2,    3.6,    2.8,    3.1,  999.0,  999.0,  999.0,  999.0,  999.0,  999.0,  999.0,  999.0,  999.0,  999.0,  999.0,  999.0,  999.0,  999.0,  999.0,  999.0,  999.0,  999.0,  999.0,  999.0,  999.0,  999.0,  999.0,  999.0,  999.0,  999.0,  999.0,  999.0,  999.0,  999.0,  999.0,  999.0,  999.0,  999.0,  999.0,  999.0,  999.0,  999.0,  999.0,  999.0,  999.0,  999.0,  999.0,  999.0,  999.0,  999.0,  999.0,  999.0,  999.0,  999.0,  999.0,  999.0,  999.0,  999.0,  999.0,  999.0,  999.0
2008/10/01 04:40,  999.0,  999.0,   -0.9,   -0.0,  999.0,    0.3,    0.4,    0.3,  999.0,    0.1,    0.4,    0.6,    1.0,    1.8,    1.4,    1.9,    2.2,    2.5,    2.5,    2.6,    2.9,    3.5,    3.6,    3.9,    4.6,    5.3,    5.3,    5.0,    4.4,    4.3,    4.2,    4.2,    2.7,    2.6,    2.5,    3.1,    3.4,    3.5,    3.2,    2.8,    2.8,    3.0,    3.6,    3.4,  999.0,  999.0,  999.0,  999.0,  999.0,  999.0,  999.0,  999.0,  999.0,  999.0,  999.0,  999.0,  999.0,  999.0,  999.0,  999.0,  999.0,  999.0,  999.0,  999.0,  999.0,  999.0,  999.0,  999.0,  999.0,  999.0,  999.0,  999.0,  999.0,  999.0,  999.0,  999.0,  999.0,  999.0,  999.0,  999.0,  999.0,  999.0,  999.0,  999.0,  999.0,  999.0,  999.0,  999.0,  999.0,  999.0,  999.0,  999.0,    1.5,  999.0,  999.0,  999.0,  999.0,  999.0,  999.0
2008/10/01 04:50,  999.0,   -0.7,   -0.2,    0.2,    0.1,    0.6,    0.7,    0.7,  999.0,    0.1,    0.2,    0.6,    0.7,    1.6,    1.5,    1.4,    1.6,    1.9,    1.8,    1.8,    2.1,    3.3,    3.3,    3.4,    3.8,    4.3,    4.3,    4.4,    4.6,    4.4,    4.0,    3.6,    2.7,    2.7,    2.7,    3.0,    3.8,    3.3,    2.9,    2.5,    2.4,    2.2,    3.3,    3.0,  999.0,  999.0,  999.0,  999.0,    0.3,   -0.4,  999.0,   -0.3,   -0.0,  999.0,  999.0,  999.0,  999.0,  999.0,  999.0,  999.0,  999.0,  999.0,  999.0,  999.0,  999.0,  999.0,  999.0,  999.0,  999.0,  999.0,  999.0,  999.0,  999.0,  999.0,  999.0,  999.0,  999.0,  999.0,  999.0,  999.0,  999.0,  999.0,  999.0,  999.0,  999.0,  999.0,  999.0,  999.0,  999.0,  999.0,  999.0,  999.0,  999.0,  999.0,    1.1,  999.0,  999.0,  999.0,  999.0
2008/10/01 05:00,  999.0,  999.0,  999.0,  999.0,  999.0,  999.0,    0.4,  999.0,  999.0,  999.0,   -0.0,    0.2,    0.8,    1.1,    1.2,    1.3,    1.5,    1.7,    1.6,    1.6,    1.9,    3.2,    3.4,    3.3,    3.6,    4.2,    4.2,    3.9,    3.7,    3.7,    3.3,    2.8,    2.1,    2.1,    2.1,    2.8,    3.7,    3.2,    3.1,    2.5,    2.5,    3.1,  999.0,  999.0,  999.0,    2.4,  999.0,  999.0,  999.0,    0.5,  999.0,  999.0,  999.0,  999.0,  999.0,  999.0,  999.0,  999.0,  999.0,  999.0,  999.0,  999.0,  999.0,  999.0,  999.0,  999.0,  999.0,  999.0,  999.0,  999.0,  999.0,  999.0,  999.0,  999.0,  999.0,  999.0,  999.0,  999.0,  999.0,  999.0,  999.0,  999.0,  999.0,  999.0,  999.0,  999.0,  999.0,  999.0,  999.0,  999.0,  999.0,  999.0,  999.0,  999.0,  999.0,  999.0,  999.0,  999.0,  999.0
2008/10/01 05:10,  999.0,  999.0,  999.0,  999.0,  999.0,  999.0,  999.0,  999.0,  999.0,  999.0,  999.0,    0.2,    0.9,    0.7,    1.3,  999.0,    1.5,    1.7,    1.9,    1.8,    2.1,    2.9,    3.8,    3.6,    3.9,    4.2,    4.7,    4.2,    3.9,    3.5,    3.3,    3.1,    2.4,    1.7,    2.3,    2.3,    3.2,    3.9,  999.0,    2.4,    2.5,  999.0,  999.0,  999.0,  999.0,  999.0,  999.0,  999.0,  999.0,    1.5,  999.0,  999.0,   -0.2,  999.0,  999.0,  999.0,  999.0,  999.0,  999.0,  999.0,  999.0,  999.0,  999.0,  999.0,  999.0,  999.0,  999.0,  999.0,  999.0,  999.0,  999.0,  999.0,  999.0,  999.0,  999.0,  999.0,  999.0,  999.0,  999.0,  999.0,  999.0,  999.0,  999.0,  999.0,  999.0,  999.0,  999.0,  999.0,  999.0,  999.0,  999.0,  999.0,  999.0,  999.0,  999.0,  999.0,  999.0,  999.0,  999.0
2008/10/01 05:20,  999.0,  999.0,  999.0,  999.0,  999.0,  999.0,   -0.1,  999.0,  999.0,  999.0,  999.0,    0.0,    0.6,    2.0,    1.8,  999.0,    1.9,    2.2,    2.1,    1.8,    2.2,    2.9,    3.6,    3.7,    3.6,    3.4,    3.5,    3.8,    3.7,    3.2,    2.9,    2.2,    1.7,    1.1,    1.4,  999.0,    3.1,  999.0,  999.0,  999.0,  999.0,  999.0,  999.0,    2.7,    2.6,  999.0,  999.0,  999.0,  999.0,  999.0,  999.0,  999.0,  999.0,  999.0,  999.0,  999.0,  999.0,  999.0,  999.0,  999.0,  999.0,  999.0,  999.0,  999.0,  999.0,  999.0,  999.0,  999.0,  999.0,  999.0,  999.0,  999.0,  999.0,  999.0,  999.0,  999.0,  999.0,  999.0,  999.0,  999.0,  999.0,  999.0,  999.0,  999.0,  999.0,  999.0,  999.0,  999.0,  999.0,  999.0,  999.0,  999.0,  999.0,  999.0,  999.0,  999.0,  999.0,  999.0,  999.0
2008/10/01 05:30,  999.0,  999.0,    0.2,  999.0,  999.0,    0.6,    0.4,    0.3,  999.0,   -0.3,    0.1,  999.0,    1.1,    1.8,    2.0,  999.0,    2.2,    2.5,    1.9,    2.1,    2.2,    3.1,    3.5,    3.4,    3.3,    3.7,    3.8,    3.7,    3.3,    3.2,    2.6,    1.9,  999.0,    1.6,    1.6,    2.1,    2.7,    2.7,  999.0,    1.8,  999.0,  999.0,  999.0,    2.4,    2.1,  999.0,    0.6,    0.4,  999.0,  999.0,  999.0,  999.0,  999.0,  999.0,  999.0,  999.0,    3.1,  999.0,  999.0,  999.0,  999.0,  999.0,  999.0,  999.0,  999.0,  999.0,  999.0,  999.0,  999.0,  999.0,  999.0,  999.0,  999.0,  999.0,  999.0,  999.0,  999.0,  999.0,  999.0,  999.0,  999.0,  999.0,  999.0,  999.0,  999.0,  999.0,  999.0,  999.0,  999.0,  999.0,  999.0,  999.0,  999.0,  999.0,  999.0,  999.0,  999.0,  999.0,  999.0
2008/10/01 05:40,  999.0,   -0.0,   -0.2,    0.0,    0.5,    0.3,    0.0,   -0.0,    0.3,   -0.1,    0.0,    0.9,    1.5,    1.9,    1.3,    1.7,    1.9,    2.2,    1.5,    1.7,    2.3,    2.7,    2.8,    3.1,    3.3,    3.6,    3.4,    3.6,    2.8,    3.3,    2.6,    1.7,  999.0,    1.3,    2.2,    2.1,    2.6,    2.7,    3.2,  999.0,    2.0,    1.7,    2.6,  999.0,  999.0,  999.0,    0.8,    1.0,  999.0,  999.0,  999.0,  999.0,  999.0,  999.0,  999.0,  999.0,    2.2,  999.0,  999.0,  999.0,  999.0,  999.0,  999.0,  999.0,  999.0,  999.0,  999.0,  999.0,  999.0,  999.0,  999.0,  999.0,  999.0,  999.0,  999.0,  999.0,  999.0,  999.0,  999.0,  999.0,  999.0,  999.0,  999.0,  999.0,  999.0,  999.0,  999.0,  999.0,  999.0,  999.0,  999.0,  999.0,  999.0,  999.0,  999.0,  999.0,  999.0,  999.0,  999.0
2008/10/01 05:50,  999.0,  999.0,   -0.8,   -0.2,    0.6,   -0.2,    0.1,   -0.2,  999.0,   -0.3,  999.0,    0.8,    1.7,    1.9,    1.8,    1.8,    1.9,    2.1,    1.8,    1.8,    2.8,    2.9,    3.1,    3.9,    3.9,  999.0,    3.1,    3.5,    3.0,    2.9,    2.3,    2.4,    1.7,  999.0,    1.7,    2.4,    2.7,    2.9,  999.0,  999.0,    2.0,  999.0,    2.5,    3.0,  999.0,  999.0,  999.0,    1.0,    1.2,  999.0,  999.0,  999.0,  999.0,  999.0,  999.0,  999.0,    1.6,  999.0,  999.0,  999.0,  999.0,  999.0,  999.0,  999.0,  999.0,  999.0,  999.0,  999.0,  999.0,  999.0,  999.0,  999.0,  999.0,  999.0,  999.0,  999.0,  999.0,  999.0,  999.0,  999.0,  999.0,  999.0,  999.0,  999.0,  999.0,  999.0,  999.0,  999.0,  999.0,  999.0,  999.0,  999.0,  999.0,  999.0,  999.0,  999.0,  999.0,  999.0,  999.0
2008/10/01 06:00,   -0.4,   -0.6,   -0.9,   -0.2,    0.5,    0.2,   -0.1,   -0.0,   -0.0,   -0.0,   -0.1,    0.4,  999.0,    1.6,    1.7,    1.7,    1.6,    1.9,    1.5,    1.7,    2.4,    2.8,    2.8,    3.1,    3.4,    3.3,    3.3,    3.3,    2.3,    2.4,    2.3,    2.0,    1.6,    1.3,    1.7,    2.4,    2.3,    2.6,  999.0,  999.0,  999.0,  999.0,    2.9,  999.0,  999.0,  999.0,  999.0,    0.7,  999.0,  999.0,  999.0,  999.0,  999.0,  999.0,  999.0,    0.9,    1.6,  999.0,  999.0,  999.0,  999.0,  999.0,  999.0,  999.0,  999.0,  999.0,  999.0,  999.0,  999.0,  999.0,  999.0,  999.0,  999.0,  999.0,  999.0,  999.0,  999.0,  999.0,  999.0,  999.0,  999.0,  999.0,  999.0,  999.0,  999.0,  999.0,  999.0,  999.0,  999.0,  999.0,  999.0,  999.0,  999.0,  999.0,  999.0,  999.0,  999.0,  999.0,  999.0
2008/10/01 06:10,   -0.0,   -0.4,   -1.4,   -0.7,    0.1,   -0.3,   -0.2,  999.0,   -0.2,   -0.3,    0.0,  999.0,  999.0,    1.8,    2.2,    1.7,    1.7,    1.8,    1.4,    1.4,    2.4,    3.0,    3.1,    3.1,  999.0,    2.9,    3.0,    3.4,    2.9,    2.0,    1.3,    1.9,    1.6,    1.3,    1.7,    2.2,    2.6,    3.1,  999.0,  999.0,  999.0,    2.6,  999.0,  999.0,  999.0,  999.0,    0.4,  999.0,  999.0,  999.0,  999.0,  999.0,  999.0,  999.0,  999.0,  999.0,  999.0,  999.0,  999.0,  999.0,  999.0,  999.0,  999.0,  999.0,  999.0,  999.0,  999.0,  999.0,  999.0,  999.0,  999.0,  999.0,  999.0,  999.0,  999.0,  999.0,  999.0,  999.0,  999.0,  999.0,  999.0,  999.0,  999.0,  999.0,  999.0,  999.0,  999.0,  999.0,  999.0,  999.0,  999.0,  999.0,  999.0,  999.0,  999.0,  999.0,  999.0,    1.3,  999.0
2008/10/01 06:20,   -0.2,    0.0,   -1.7,   -1.0,   -0.3,   -0.4,   -0.5,   -0.5,   -0.9,   -0.8,   -0.2,  999.0,    1.2,    1.3,    1.4,    1.6,    1.6,    1.6,    1.5,    1.6,    2.3,    2.7,    2.9,    3.1,    2.6,    2.5,    2.6,    2.9,    2.8,    2.7,    2.0,    2.1,    2.0,  999.0,    1.8,    2.2,    2.7,    2.9,  999.0,  999.0,  999.0,  999.0,  999.0,  999.0,  999.0,  999.0,    0.5,    1.1,  999.0,  999.0,  999.0,  999.0,  999.0,  999.0,  999.0,  999.0,  999.0,  999.0,  999.0,  999.0,  999.0,  999.0,  999.0,  999.0,  999.0,  999.0,  999.0,  999.0,  999.0,  999.0,  999.0,  999.0,  999.0,  999.0,  999.0,  999.0,  999.0,  999.0,  999.0,  999.0,  999.0,  999.0,  999.0,  999.0,  999.0,  999.0,  999.0,  999.0,  999.0,  999.0,  999.0,  999.0,  999.0,  999.0,  999.0,  999.0,  999.0,  999.0,  999.0
2008/10/01 06:30,   -0.0,   -0.2,   -1.5,   -1.0,    0.0,   -0.0,   -0.2,   -0.1,  999.0,   -0.2,    0.2,  999.0,  999.0,    1.1,    2.0,    1.2,    1.6,    1.3,    1.3,    1.6,    2.0,    2.2,    2.1,    1.9,    1.7,    1.9,    2.5,    2.5,    3.0,    3.1,    2.2,    2.5,    2.3,  999.0,    1.5,    1.7,    2.1,    2.0,    1.2,    1.4,    2.0,  999.0,  999.0,  999.0,  999.0,    0.3,    0.2,  999.0,  999.0,  999.0,  999.0,  999.0,  999.0,  999.0,  999.0,  999.0,  999.0,  999.0,  999.0,  999.0,  999.0,  999.0,  999.0,  999.0,  999.0,  999.0,  999.0,  999.0,  999.0,  999.0,  999.0,  999.0,  999.0,  999.0,  999.0,  999.0,  999.0,  999.0,  999.0,  999.0,  999.0,  999.0,  999.0,  999.0,  999.0,  999.0,  999.0,  999.0,  999.0,  999.0,  999.0,  999.0,  999.0,  999.0,  999.0,  999.0,  999.0,  999.0,  999.0
2008/10/01 06:40,   -0.0,   -0.2,   -1.1,   -0.9,   -0.0,    0.0,   -0.0,    0.2,   -0.2,   -0.2,   -0.3,    0.6,  999.0,    1.2,    1.6,    1.2,    1.8,    1.3,    1.3,    1.5,    2.1,    2.0,    2.2,    2.0,    2.4,    2.3,    2.4,    2.4,    2.8,    3.2,    2.7,    2.7,    2.4,  999.0,    1.6,    1.9,    2.2,    2.2,    2.2,    2.2,  999.0,  999.0,  999.0,  999.0,  999.0,    0.8,    1.1,  999.0,  999.0,  999.0,  999.0,  999.0,  999.0,  999.0,  999.0,  999.0,  999.0,  999.0,  999.0,  999.0,  999.0,  999.0,  999.0,  999.0,  999.0,  999.0,  999.0,  999.0,  999.0,  999.0,  999.0,  999.0,  999.0,  999.0,  999.0,  999.0,  999.0,  999.0,  999.0,  999.0,  999.0,  999.0,  999.0,  999.0,  999.0,  999.0,  999.0,  999.0,  999.0,  999.0,  999.0,  999.0,  999.0,  999.0,  999.0,  999.0,  999.0,  999.0,  999.0
2008/10/01 06:50,   -0.2,   -0.2,   -0.9,   -0.8,   -0.0,    0.4,    0.2,   -0.1,   -0.5,   -0.2,    0.0,    1.0,    1.6,    1.6,    0.8,    1.8,    2.1,    1.6,    1.7,    2.2,    2.5,    3.0,    2.3,    1.9,  999.0,    2.8,    3.1,    2.6,    2.7,    2.8,    2.7,    2.1,    1.8,  999.0,    1.2,    1.3,    1.5,    1.9,    1.7,    1.9,  999.0,  999.0,  999.0,  999.0,  999.0,  999.0,  999.0,    0.4,  999.0,  999.0,  999.0,  999.0,  999.0,  999.0,  999.0,  999.0,  999.0,  999.0,  999.0,  999.0,  999.0,  999.0,  999.0,  999.0,  999.0,  999.0,  999.0,  999.0,  999.0,  999.0,  999.0,  999.0,  999.0,  999.0,  999.0,  999.0,  999.0,  999.0,  999.0,  999.0,  999.0,  999.0,  999.0,  999.0,  999.0,  999.0,  999.0,  999.0,  999.0,  999.0,  999.0,  999.0,  999.0,  999.0,  999.0,  999.0,  999.0,  999.0,  999.0
2008/10/01 07:00,   -0.1,   -0.2,   -0.5,   -1.1,   -0.3,    0.2,    0.1,    0.1,   -0.0,   -0.2,   -0.3,    0.6,    0.9,    1.4,    1.5,    1.9,    1.6,    1.4,    1.4,    2.0,    2.4,    2.3,    2.2,    2.9,    2.4,    3.0,    3.8,    3.9,    3.3,    3.1,    3.4,    2.7,  999.0,    1.1,    1.0,    1.2,    1.0,    0.8,    1.1,  999.0,  999.0,  999.0,    2.0,  999.0,  999.0,  999.0,  999.0,  999.0,  999.0,  999.0,  999.0,  999.0,  999.0,  999.0,  999.0,  999.0,  999.0,  999.0,  999.0,  999.0,  999.0,  999.0,  999.0,  999.0,  999.0,  999.0,  999.0,  999.0,  999.0,  999.0,  999.0,  999.0,  999.0,  999.0,  999.0,  999.0,  999.0,  999.0,  999.0,  999.0,  999.0,  999.0,  999.0,  999.0,  999.0,  999.0,  999.0,  999.0,  999.0,  999.0,  999.0,  999.0,  999.0,  999.0,  999.0,  999.0,  999.0,  999.0,  999.0
2008/10/01 07:10,   -0.1,   -0.5,   -0.7,   -2.2,   -0.7,   -0.1,    0.0,   -0.0,   -0.1,   -0.2,   -0.2,   -0.3,    0.1,  999.0,    1.3,    2.0,    1.8,    2.2,    1.7,    1.8,    2.4,    2.6,    2.5,    2.8,    3.7,    4.2,    4.2,    3.9,  999.0,    3.0,    3.2,    2.9,  999.0,  999.0,    1.6,    2.4,    2.1,  999.0,    2.5,  999.0,  999.0,  999.0,  999.0,  999.0,  999.0,  999.0,  999.0,  999.0,   -0.1,  999.0,  999.0,  999.0,  999.0,  999.0,  999.0,  999.0,  999.0,  999.0,  999.0,  999.0,  999.0,  999.0,  999.0,  999.0,  999.0,  999.0,  999.0,  999.0,  999.0,  999.0,  999.0,  999.0,  999.0,  999.0,  999.0,  999.0,  999.0,  999.0,  999.0,  999.0,  999.0,  999.0,  999.0,  999.0,  999.0,  999.0,  999.0,  999.0,  999.0,  999.0,  999.0,  999.0,  999.0,  999.0,  999.0,  999.0,  999.0,  999.0,  999.0
2008/10/01 07:20,   -0.1,   -0.3,   -0.8,   -2.2,   -1.7,   -0.2,   -0.0,   -0.1,   -0.0,   -0.1,   -0.6,   -0.6,  999.0,  999.0,  999.0,    1.2,    1.3,    1.6,    1.2,    1.6,    2.1,    2.4,    2.6,    3.2,    3.9,    3.9,    3.8,    3.8,    3.4,    3.2,    3.0,  999.0,    2.8,    2.3,  999.0,    2.3,  999.0,  999.0,  999.0,  999.0,  999.0,  999.0,  999.0,  999.0,  999.0,  999.0,  999.0,  999.0,  999.0,  999.0,  999.0,  999.0,  999.0,  999.0,  999.0,  999.0,  999.0,  999.0,  999.0,  999.0,  999.0,  999.0,  999.0,  999.0,  999.0,  999.0,  999.0,  999.0,  999.0,  999.0,  999.0,  999.0,  999.0,  999.0,  999.0,  999.0,  999.0,  999.0,  999.0,  999.0,  999.0,  999.0,  999.0,  999.0,  999.0,  999.0,  999.0,  999.0,  999.0,  999.0,  999.0,  999.0,  999.0,  999.0,  999.0,  999.0,  999.0,  999.0,  999.0
2008/10/01 07:30,   -0.3,   -0.3,   -1.1,   -2.3,   -0.7,    0.1,    0.1,   -0.1,   -0.4,   -0.7,   -0.6,   -0.7,  999.0,  999.0,    1.5,    0.9,    1.4,    1.5,    1.1,    1.4,    2.0,    2.1,    2.6,    2.5,    2.5,    2.8,    2.5,    2.7,    2.6,    2.2,    2.1,    1.7,  999.0,  999.0,  999.0,    1.7,  999.0,    1.4,    2.0,  999.0,  999.0,  999.0,  999.0,  999.0,   -0.4,  999.0,  999.0,  999.0,  999.0,  999.0,  999.0,  999.0,  999.0,  999.0,  999.0,  999.0,  999.0,  999.0,  999.0,  999.0,  999.0,  999.0,  999.0,  999.0,  999.0,  999.0,  999.0,  999.0,  999.0,  999.0,  999.0,  999.0,  999.0,  999.0,  999.0,  999.0,  999.0,  999.0,  999.0,  999.0,  999.0,  999.0,  999.0,  999.0,  999.0,  999.0,  999.0,  999.0,  999.0,  999.0,  999.0,  999.0,  999.0,  999.0,  999.0,  999.0,  999.0,  999.0,  999.0
2008/10/01 07:40,   -0.1,   -0.2,   -1.5,   -0.5,   -0.0,    0.0,   -0.0,   -0.9,   -0.9,   -0.7,   -0.2,    0.2,    0.7,    0.8,    1.0,    1.1,    1.0,    0.6,    0.9,    0.7,    1.2,    1.4,    1.5,    1.6,    1.8,    1.9,    1.8,    1.9,    1.4,    1.4,    1.7,    1.4,  999.0,  999.0,  999.0,  999.0,  999.0,    1.7,    1.2,  999.0,  999.0,  999.0,  999.0,  999.0,  999.0,  999.0,  999.0,  999.0,  999.0,  999.0,  999.0,  999.0,  999.0,  999.0,  999.0,  999.0,  999.0,  999.0,  999.0,  999.0,  999.0,  999.0,  999.0,  999.0,  999.0,  999.0,  999.0,  999.0,  999.0,  999.0,  999.0,  999.0,  999.0,  999.0,  999.0,  999.0,  999.0,  999.0,  999.0,  999.0,  999.0,  999.0,  999.0,  999.0,  999.0,  999.0,  999.0,  999.0,  999.0,  999.0,  999.0,   -0.7,  999.0,   -0.7,  999.0,  999.0,  999.0,  999.0,  999.0
2008/10/01 07:50,   -0.4,   -0.2,  999.0,  999.0,   -0.1,   -0.0,  999.0,   -0.9,   -1.0,   -0.8,   -0.4,  999.0,    0.2,    0.5,    0.8,    1.2,    1.2,    0.8,    1.2,    1.5,    1.9,    2.1,    2.4,    2.5,    2.5,    2.3,    2.5,    2.3,    2.0,    1.5,    1.6,    1.5,  999.0,    1.0,    1.1,    1.4,  999.0,    1.8,    1.5,  999.0,  999.0,  999.0,  999.0,  999.0,  999.0,  999.0,  999.0,  999.0,  999.0,  999.0,  999.0,  999.0,  999.0,  999.0,  999.0,  999.0,  999.0,  999.0,  999.0,  999.0,  999.0,  999.0,  999.0,  999.0,  999.0,  999.0,  999.0,  999.0,  999.0,  999.0,  999.0,  999.0,  999.0,  999.0,  999.0,  999.0,  999.0,  999.0,  999.0,  999.0,  999.0,  999.0,  999.0,  999.0,  999.0,  999.0,  999.0,  999.0,  999.0,  999.0,  999.0,  999.0,  999.0,  999.0,  999.0,  999.0,  999.0,  999.0,  999.0
2008/10/01 08:00,   -0.2,   -0.2,   -0.6,   -2.1,   -0.6,    0.0,   -0.1,   -0.2,   -0.5,   -0.5,   -0.2,  999.0,    0.2,    0.6,    1.4,    1.5,    1.6,    1.5,    1.5,    2.3,    2.4,    2.7,    2.8,    3.4,    3.0,    2.9,    2.7,    2.9,    1.9,    1.7,    1.9,    1.6,  999.0,    1.1,    1.3,    1.8,    1.6,    2.1,    2.3,    1.5,  999.0,  999.0,  999.0,  999.0,  999.0,  999.0,  999.0,  999.0,  999.0,  999.0,  999.0,  999.0,  999.0,  999.0,  999.0,  999.0,  999.0,  999.0,  999.0,  999.0,  999.0,  999.0,  999.0,  999.0,  999.0,  999.0,  999.0,  999.0,  999.0,  999.0,  999.0,  999.0,  999.0,  999.0,  999.0,  999.0,  999.0,  999.0,  999.0,  999.0,  999.0,  999.0,  999.0,  999.0,  999.0,  999.0,  999.0,  999.0,  999.0,  999.0,  999.0,  999.0,  999.0,  999.0,  999.0,  999.0,  999.0,  999.0,  999.0
2008/10/01 08:10,   -0.4,   -1.1,   -1.1,   -1.9,   -0.7,   -0.6,   -0.3,   -0.3,   -0.6,   -0.4,   -0.3,  999.0,  999.0,    0.6,    1.0,    1.3,    1.5,    1.6,    1.7,    2.1,    2.5,    3.1,    2.9,    3.5,    3.2,    3.1,    2.5,    2.6,    3.0,    2.1,    1.9,    2.1,    1.4,    1.0,    0.9,    1.4,    1.5,    1.9,    2.2,    2.1,  999.0,  999.0,  999.0,  999.0,  999.0,  999.0,  999.0,  999.0,  999.0,  999.0,  999.0,  999.0,  999.0,  999.0,  999.0,  999.0,  999.0,  999.0,  999.0,  999.0,  999.0,  999.0,  999.0,  999.0,  999.0,  999.0,  999.0,  999.0,  999.0,  999.0,  999.0,  999.0,  999.0,  999.0,  999.0,  999.0,  999.0,  999.0,  999.0,  999.0,  999.0,  999.0,  999.0,  999.0,  999.0,  999.0,  999.0,  999.0,  999.0,  999.0,  999.0,  999.0,  999.0,  999.0,  999.0,  999.0,  999.0,  999.0,  999.0
2008/10/01 08:20,   -0.3,   -0.5,   -1.0,   -2.3,   -0.8,   -0.5,   -0.5,   -0.3,   -0.3,   -0.5,   -0.5,  999.0,   -0.0,    0.4,    1.1,    1.4,    1.4,    1.6,    1.7,    2.0,    2.3,    2.9,    2.6,    2.7,    2.9,  999.0,    2.1,    1.7,    2.0,    2.1,    1.5,    1.7,    1.2,  999.0,  999.0,    1.0,    1.5,    1.6,  999.0,    1.8,  999.0,  999.0,  999.0,  999.0,  999.0,  999.0,  999.0,  999.0,  999.0,  999.0,  999.0,  999.0,  999.0,  999.0,  999.0,  999.0,  999.0,  999.0,  999.0,  999.0,  999.0,  999.0,  999.0,  999.0,  999.0,  999.0,  999.0,  999.0,  999.0,  999.0,  999.0,  999.0,  999.0,  999.0,  999.0,  999.0,  999.0,  999.0,  999.0,  999.0,  999.0,  999.0,  999.0,  999.0,  999.0,  999.0,  999.0,  999.0,  999.0,  999.0,  999.0,  999.0,  999.0,  999.0,  999.0,  999.0,  999.0,  999.0,  999.0
2008/10/01 08:30,   -0.1,   -0.5,   -2.3,   -2.2,   -0.7,   -0.4,   -0.6,   -0.0,    0.1,   -0.3,   -0.2,   -0.3,    0.2,    0.5,    1.1,    1.6,    1.6,    1.7,    1.9,    2.0,    2.6,    2.8,    2.7,    3.0,    3.3,  999.0,    2.4,    1.7,    1.6,    1.7,    1.3,    1.5,    1.5,  999.0,    0.2,    0.8,    1.2,    1.3,  999.0,    1.1,  999.0,  999.0,  999.0,  999.0,  999.0,  999.0,  999.0,  999.0,  999.0,  999.0,  999.0,  999.0,  999.0,  999.0,  999.0,  999.0,  999.0,  999.0,  999.0,  999.0,  999.0,  999.0,  999.0,  999.0,  999.0,  999.0,  999.0,  999.0,  999.0,  999.0,  999.0,  999.0,  999.0,  999.0,  999.0,  999.0,  999.0,  999.0,  999.0,  999.0,  999.0,  999.0,  999.0,  999.0,  999.0,  999.0,  999.0,  999.0,  999.0,  999.0,  999.0,  999.0,  999.0,  999.0,  999.0,  999.0,  999.0,  999.0,  999.0
2008/10/01 08:40,    0.0,   -0.8,   -2.7,   -2.3,   -0.9,   -0.2,   -0.5,   -0.4,   -0.2,   -0.4,   -0.5,    0.0,    0.3,    0.6,    1.3,    1.5,    1.6,    1.4,    1.4,    1.7,  999.0,    2.7,    2.3,    2.9,    3.3,  999.0,    2.7,    2.2,    1.4,    1.5,    1.1,    0.9,  999.0,  999.0,  999.0,  999.0,  999.0,  999.0,  999.0,  999.0,  999.0,  999.0,  999.0,  999.0,  999.0,  999.0,  999.0,  999.0,  999.0,  999.0,  999.0,  999.0,  999.0,  999.0,  999.0,  999.0,  999.0,  999.0,  999.0,  999.0,  999.0,  999.0,  999.0,  999.0,  999.0,  999.0,  999.0,  999.0,  999.0,  999.0,  999.0,  999.0,  999.0,  999.0,  999.0,  999.0,  999.0,  999.0,  999.0,  999.0,  999.0,  999.0,  999.0,  999.0,  999.0,  999.0,  999.0,  999.0,  999.0,  999.0,  999.0,  999.0,  999.0,  999.0,  999.0,  999.0,  999.0,  999.0,  999.0
2008/10/01 08:50,   -0.1,   -0.7,   -2.3,   -2.0,   -2.0,   -0.4,   -0.6,   -0.2,   -0.2,   -0.3,   -0.3,  999.0,    0.3,    0.5,    1.2,    1.5,    1.5,    1.3,    1.3,    1.4,    2.0,  999.0,    2.4,    2.7,    3.0,  999.0,    2.9,    2.7,    1.8,    2.0,    1.7,    1.8,    1.2,  999.0,    0.5,    1.2,    1.7,  999.0,  999.0,    1.6,  999.0,  999.0,  999.0,  999.0,  999.0,  999.0,  999.0,  999.0,  999.0,  999.0,  999.0,  999.0,  999.0,  999.0,  999.0,  999.0,  999.0,  999.0,  999.0,  999.0,  999.0,  999.0,  999.0,  999.0,  999.0,  999.0,  999.0,  999.0,  999.0,  999.0,  999.0,  999.0,  999.0,  999.0,  999.0,  999.0,  999.0,  999.0,  999.0,  999.0,  999.0,  999.0,  999.0,  999.0,  999.0,  999.0,  999.0,  999.0,  999.0,  999.0,  999.0,  999.0,  999.0,  999.0,  999.0,  999.0,  999.0,  999.0,  999.0
2008/10/01 09:00,   -0.3,   -0.6,   -1.7,   -1.6,   -0.8,    0.5,   -0.1,   -0.4,   -0.3,   -0.6,   -0.0,    0.2,    0.7,    1.3,    1.3,    2.0,    1.9,    1.9,  999.0,  999.0,  999.0,    2.6,    2.3,    2.7,  999.0,    2.5,    2.5,    2.3,  999.0,    1.8,    1.9,    1.0,    0.4,  999.0,  999.0,  999.0,    1.0,  999.0,  999.0,  999.0,  999.0,  999.0,  999.0,  999.0,  999.0,  999.0,  999.0,  999.0,  999.0,  999.0,  999.0,  999.0,  999.0,  999.0,  999.0,  999.0,  999.0,  999.0,  999.0,  999.0,  999.0,  999.0,  999.0,  999.0,  999.0,  999.0,  999.0,  999.0,  999.0,  999.0,  999.0,  999.0,  999.0,  999.0,  999.0,  999.0,  999.0,  999.0,  999.0,  999.0,  999.0,  999.0,  999.0,  999.0,  999.0,  999.0,  999.0,  999.0,  999.0,  999.0,  999.0,  999.0,  999.0,  999.0,  999.0,  999.0,  999.0,  999.0,  999.0
2008/10/01 09:10,   -0.1,   -0.3,   -0.9,   -1.0,   -0.5,   -0.0,   -0.3,   -0.8,   -0.4,   -0.6,   -0.2,   -0.0,    0.4,    0.8,    1.2,    1.6,    1.5,    1.9,  999.0,    1.9,  999.0,    2.0,    2.4,    2.5,    2.6,    2.5,    2.2,    1.8,    1.7,    1.7,    1.5,  999.0,  999.0,  999.0,  999.0,    1.3,  999.0,  999.0,    1.2,  999.0,  999.0,  999.0,  999.0,  999.0,  999.0,  999.0,  999.0,  999.0,  999.0,  999.0,  999.0,  999.0,  999.0,  999.0,  999.0,  999.0,  999.0,  999.0,  999.0,  999.0,  999.0,  999.0,  999.0,  999.0,  999.0,  999.0,  999.0,  999.0,  999.0,  999.0,  999.0,  999.0,  999.0,  999.0,  999.0,  999.0,  999.0,  999.0,  999.0,  999.0,  999.0,  999.0,  999.0,  999.0,  999.0,  999.0,  999.0,  999.0,  999.0,  999.0,  999.0,  999.0,  999.0,  999.0,  999.0,  999.0,  999.0,  999.0,  999.0
2008/10/01 09:20,    0.0,   -0.8,   -0.9,   -1.6,   -0.4,   -0.1,   -0.3,   -0.5,   -0.6,   -0.4,   -0.5,    0.4,    0.5,    0.8,    1.7,    2.0,    2.0,    2.0,    2.2,    2.2,    2.6,  999.0,    2.3,    2.6,    2.5,    2.5,    2.3,    1.7,    1.8,    1.8,    1.3,    0.8,  999.0,  999.0,  999.0,    0.6,    1.1,    1.0,  999.0,  999.0,    1.5,    1.0,  999.0,  999.0,  999.0,  999.0,  999.0,  999.0,  999.0,  999.0,  999.0,  999.0,  999.0,  999.0,  999.0,  999.0,  999.0,  999.0,  999.0,  999.0,  999.0,  999.0,  999.0,  999.0,  999.0,  999.0,  999.0,  999.0,  999.0,  999.0,  999.0,  999.0,  999.0,  999.0,  999.0,  999.0,  999.0,  999.0,  999.0,  999.0,  999.0,  999.0,  999.0,  999.0,  999.0,  999.0,  999.0,  999.0,  999.0,  999.0,  999.0,  999.0,  999.0,  999.0,  999.0,  999.0,  999.0,  999.0,  999.0
2008/10/01 09:30,   -0.2,   -0.0,   -1.6,   -0.9,   -0.3,    1.2,    0.9,   -0.6,   -0.5,   -0.3,   -0.2,    0.3,    0.7,    0.8,    1.4,    1.7,    1.9,    2.0,    2.0,    2.3,    2.5,    2.4,    2.0,    2.4,    1.9,    1.9,    1.5,    1.1,    1.2,    0.8,    0.3,  999.0,  999.0,  999.0,    1.0,  999.0,  999.0,  999.0,  999.0,  999.0,    1.0,    0.8,  999.0,  999.0,  999.0,  999.0,  999.0,  999.0,  999.0,  999.0,  999.0,  999.0,  999.0,  999.0,  999.0,  999.0,  999.0,  999.0,  999.0,  999.0,  999.0,  999.0,  999.0,  999.0,  999.0,  999.0,  999.0,  999.0,  999.0,  999.0,  999.0,  999.0,  999.0,  999.0,  999.0,  999.0,  999.0,  999.0,  999.0,  999.0,  999.0,  999.0,  999.0,  999.0,  999.0,  999.0,  999.0,  999.0,  999.0,  999.0,  999.0,  999.0,  999.0,  999.0,  999.0,  999.0,  999.0,  999.0,  999.0
2008/10/01 09:40,   -0.1,   -0.2,   -0.4,   -1.3,    0.9,    2.3,    0.9,   -0.4,   -0.2,   -0.0,    0.0,    0.2,    0.5,    1.0,    1.8,    2.0,    2.3,    2.3,    2.6,    2.4,    2.5,    2.5,    2.0,    2.4,    2.0,    1.9,    1.7,    1.3,  999.0,    0.6,    0.3,  999.0,  999.0,    0.6,    1.4,    2.1,  999.0,  999.0,  999.0,  999.0,    2.1,  999.0,  999.0,  999.0,  999.0,  999.0,  999.0,   -0.5,   -0.5,  999.0,  999.0,  999.0,  999.0,  999.0,  999.0,  999.0,  999.0,  999.0,  999.0,  999.0,  999.0,  999.0,  999.0,  999.0,  999.0,  999.0,  999.0,  999.0,  999.0,  999.0,  999.0,  999.0,  999.0,  999.0,  999.0,  999.0,  999.0,  999.0,  999.0,  999.0,  999.0,  999.0,  999.0,  999.0,  999.0,  999.0,  999.0,  999.0,  999.0,  999.0,  999.0,  999.0,  999.0,  999.0,  999.0,  999.0,  999.0,  999.0,  999.0
2008/10/01 09:50,   -1.1,   -1.5,   -1.5,   -1.2,   -1.7,   -2.5,  999.0,   -0.5,   -1.3,   -0.5,   -0.5,   -0.1,    0.3,    0.6,    1.4,    1.7,    2.0,    2.1,    2.3,    2.5,    2.3,    2.6,    2.2,    2.5,    2.3,    1.9,    2.0,    1.8,  999.0,    1.0,    0.9,  999.0,  999.0,    1.6,    2.0,    2.2,  999.0,  999.0,  999.0,  999.0,    2.2,    2.1,  999.0,  999.0,  999.0,  999.0,  999.0,  999.0,  999.0,  999.0,  999.0,  999.0,  999.0,  999.0,  999.0,  999.0,  999.0,  999.0,  999.0,  999.0,  999.0,  999.0,  999.0,  999.0,  999.0,  999.0,  999.0,  999.0,  999.0,  999.0,  999.0,  999.0,  999.0,  999.0,  999.0,  999.0,  999.0,  999.0,  999.0,  999.0,  999.0,  999.0,  999.0,  999.0,  999.0,  999.0,  999.0,  999.0,  999.0,  999.0,  999.0,  999.0,  999.0,  999.0,  999.0,  999.0,  999.0,  999.0,  999.0
2008/10/01 10:00,   -0.0,   -0.8,   -0.5,   -0.2,    0.1,    0.4,   -0.2,   -0.8,   -0.6,   -0.3,   -0.1,   -0.4,    0.1,    0.1,    1.0,    1.3,    1.8,    1.9,    1.8,    2.1,    2.0,    1.9,    2.1,    1.8,    1.7,    1.9,    1.8,    1.6,  999.0,  999.0,    0.6,  999.0,    0.1,    0.8,    1.3,  999.0,  999.0,  999.0,  999.0,  999.0,    1.6,    1.3,  999.0,  999.0,  999.0,  999.0,  999.0,  999.0,  999.0,  999.0,  999.0,  999.0,  999.0,  999.0,  999.0,  999.0,  999.0,  999.0,  999.0,  999.0,  999.0,  999.0,  999.0,  999.0,  999.0,  999.0,  999.0,  999.0,  999.0,  999.0,  999.0,  999.0,  999.0,  999.0,  999.0,  999.0,  999.0,  999.0,  999.0,  999.0,  999.0,  999.0,  999.0,  999.0,  999.0,  999.0,  999.0,  999.0,  999.0,  999.0,  999.0,  999.0,  999.0,  999.0,  999.0,  999.0,  999.0,  999.0,  999.0
2008/10/01 10:10,    0.0,   -0.5,   -1.1,   -0.9,   -0.8,   -1.0,   -1.1,   -1.0,   -0.3,   -0.1,   -0.2,    0.0,    0.5,    1.1,    1.4,    2.0,    1.9,    2.0,    2.0,    1.9,    2.1,    2.0,    1.8,    2.0,    2.1,  999.0,    2.2,    1.6,    1.3,  999.0,  999.0,  999.0,  999.0,    0.4,    1.1,  999.0,  999.0,  999.0,  999.0,  999.0,    1.7,    1.4,  999.0,  999.0,  999.0,   -1.3,  999.0,  999.0,  999.0,  999.0,  999.0,  999.0,  999.0,  999.0,  999.0,  999.0,  999.0,  999.0,  999.0,  999.0,  999.0,  999.0,  999.0,  999.0,  999.0,  999.0,  999.0,  999.0,  999.0,  999.0,  999.0,  999.0,  999.0,  999.0,  999.0,  999.0,  999.0,  999.0,  999.0,  999.0,  999.0,  999.0,  999.0,  999.0,  999.0,  999.0,  999.0,  999.0,  999.0,  999.0,  999.0,  999.0,  999.0,  999.0,  999.0,  999.0,  999.0,  999.0,  999.0
2008/10/01 10:20,    0.5,   -0.7,   -0.9,   -0.9,   -0.8,   -0.8,   -0.9,   -0.4,   -0.2,    0.1,    0.6,    1.1,    1.3,    1.7,    1.6,    1.8,    1.8,    2.0,    2.3,    2.1,    2.1,    2.0,    1.9,    1.7,    2.2,    1.7,    1.8,    1.2,  999.0,  999.0,  999.0,    0.5,  999.0,  999.0,    0.4,    1.0,  999.0,  999.0,  999.0,  999.0,  999.0,    1.0,    0.7,  999.0,  999.0,  999.0,   -1.5,  999.0,  999.0,  999.0,  999.0,  999.0,  999.0,  999.0,  999.0,  999.0,  999.0,  999.0,  999.0,  999.0,  999.0,  999.0,  999.0,  999.0,  999.0,  999.0,  999.0,  999.0,  999.0,  999.0,  999.0,  999.0,  999.0,  999.0,  999.0,  999.0,  999.0,  999.0,  999.0,  999.0,  999.0,  999.0,  999.0,  999.0,  999.0,  999.0,  999.0,  999.0,  999.0,  999.0,  999.0,  999.0,  999.0,  999.0,  999.0,  999.0,  999.0,  999.0,  999.0
2008/10/01 10:30,    0.1,   -1.2,   -0.9,   -1.1,  999.0,   -0.9,   -1.2,   -0.5,   -0.5,   -0.7,   -0.3,    0.2,    1.2,    1.5,    1.7,    2.1,    2.2,    2.2,    1.9,    2.2,  999.0,    2.2,    2.3,    2.0,    2.1,    1.0,    2.0,  999.0,  999.0,  999.0,  999.0,  999.0,  999.0,  999.0,  999.0,    1.1,  999.0,  999.0,  999.0,  999.0,  999.0,    1.3,    0.8,  999.0,  999.0,  999.0,   -0.8,   -1.2,  999.0,  999.0,  999.0,  999.0,  999.0,  999.0,  999.0,  999.0,  999.0,  999.0,  999.0,  999.0,  999.0,  999.0,  999.0,  999.0,  999.0,  999.0,  999.0,  999.0,  999.0,  999.0,  999.0,  999.0,  999.0,  999.0,  999.0,  999.0,  999.0,  999.0,  999.0,  999.0,  999.0,  999.0,  999.0,  999.0,  999.0,  999.0,  999.0,  999.0,  999.0,  999.0,  999.0,  999.0,  999.0,  999.0,  999.0,  999.0,  999.0,  999.0,  999.0
2008/10/01 10:40,    0.4,    0.7,   -0.2,   -1.2,   -1.0,   -1.1,   -0.8,    0.4,    0.9,    0.8,    0.7,    1.1,    1.8,    2.3,    2.4,    2.8,    2.7,    2.3,    2.4,    2.5,    2.0,    2.4,    1.8,    1.6,    1.8,    1.5,    1.5,  999.0,  999.0,  999.0,  999.0,  999.0,  999.0,  999.0,  999.0,    1.1,  999.0,  999.0,  999.0,  999.0,  999.0,    1.2,    0.7,  999.0,  999.0,  999.0,   -0.7,  999.0,   -1.2,  999.0,  999.0,  999.0,  999.0,  999.0,  999.0,  999.0,  999.0,  999.0,  999.0,  999.0,  999.0,  999.0,  999.0,  999.0,  999.0,  999.0,  999.0,  999.0,  999.0,  999.0,  999.0,  999.0,  999.0,  999.0,  999.0,  999.0,  999.0,  999.0,  999.0,  999.0,  999.0,  999.0,  999.0,  999.0,  999.0,  999.0,  999.0,  999.0,  999.0,  999.0,  999.0,  999.0,  999.0,  999.0,  999.0,  999.0,  999.0,  999.0,  999.0
2008/10/01 10:50,    0.1,    0.4,    0.4,   -1.0,   -1.2,   -1.4,   -1.6,   -1.6,   -0.9,   -1.1,   -1.2,   -0.3,    0.4,    1.2,    1.7,    2.1,    2.1,    2.0,    1.9,    1.8,    1.5,    1.6,    1.6,    1.5,    1.7,    1.1,    1.6,  999.0,  999.0,  999.0,  999.0,  999.0,  999.0,  999.0,    1.6,  999.0,  999.0,  999.0,  999.0,  999.0,  999.0,    1.8,  999.0,  999.0,  999.0,  999.0,  999.0,  999.0,  999.0,  999.0,  999.0,  999.0,  999.0,  999.0,  999.0,  999.0,  999.0,  999.0,  999.0,  999.0,  999.0,  999.0,  999.0,  999.0,  999.0,  999.0,  999.0,  999.0,  999.0,  999.0,  999.0,  999.0,  999.0,  999.0,  999.0,  999.0,  999.0,  999.0,  999.0,  999.0,  999.0,  999.0,  999.0,  999.0,  999.0,  999.0,  999.0,  999.0,  999.0,  999.0,  999.0,  999.0,  999.0,  999.0,  999.0,  999.0,  999.0,  999.0,  999.0
2008/10/01 11:00,   -0.0,   -0.3,   -1.4,   -1.3,   -1.0,   -1.4,   -1.5,   -0.5,    0.1,    0.1,    0.5,    1.4,    1.8,    1.7,    2.3,    2.7,    2.6,    2.5,    2.2,    2.7,    2.1,    1.6,    1.9,    2.0,    2.0,    1.9,    1.8,    1.2,    0.7,  999.0,  999.0,  999.0,  999.0,    0.6,    1.5,    0.9,  999.0,  999.0,  999.0,  999.0,  999.0,  999.0,  999.0,  999.0,  999.0,  999.0,  999.0,   -1.7,  999.0,  999.0,  999.0,  999.0,  999.0,  999.0,  999.0,  999.0,  999.0,  999.0,  999.0,  999.0,  999.0,  999.0,  999.0,  999.0,  999.0,  999.0,  999.0,  999.0,  999.0,  999.0,  999.0,  999.0,  999.0,  999.0,  999.0,  999.0,  999.0,  999.0,  999.0,  999.0,  999.0,  999.0,  999.0,  999.0,  999.0,  999.0,  999.0,  999.0,  999.0,  999.0,  999.0,  999.0,  999.0,  999.0,  999.0,  999.0,  999.0,  999.0,  999.0
2008/10/01 11:10,   -0.1,   -0.4,   -0.6,   -1.1,   -1.0,   -1.0,   -0.6,    0.4,    0.9,    1.7,    1.6,    1.4,    1.3,    1.2,    1.2,    1.2,    2.0,    2.7,    2.4,    1.6,    1.3,    1.4,    1.1,    1.4,    1.8,    2.3,    2.3,    2.0,    1.7,    2.2,  999.0,  999.0,  999.0,    1.4,    1.5,  999.0,  999.0,  999.0,  999.0,  999.0,  999.0,  999.0,  999.0,  999.0,  999.0,  999.0,   -1.8,  999.0,  999.0,  999.0,  999.0,  999.0,  999.0,  999.0,  999.0,  999.0,  999.0,  999.0,  999.0,  999.0,  999.0,  999.0,  999.0,  999.0,  999.0,  999.0,  999.0,  999.0,  999.0,  999.0,  999.0,  999.0,  999.0,  999.0,  999.0,  999.0,  999.0,  999.0,  999.0,  999.0,  999.0,  999.0,  999.0,  999.0,  999.0,  999.0,  999.0,  999.0,  999.0,  999.0,  999.0,  999.0,  999.0,  999.0,  999.0,  999.0,  999.0,  999.0,  999.0
2008/10/01 11:20,   -0.8,   -1.8,   -1.2,   -0.9,   -1.0,   -0.8,   -1.2,   -1.8,   -1.1,   -2.2,    0.7,    2.6,    1.8,    2.6,    2.4,    2.0,    2.2,    1.9,    1.8,    1.3,    1.6,    2.4,    2.4,    1.7,    1.6,    1.5,    1.1,    0.5,    0.9,  999.0,  999.0,  999.0,  999.0,  999.0,   -0.0,    0.5,  999.0,  999.0,  999.0,  999.0,    2.3,  999.0,  999.0,  999.0,  999.0,  999.0,  999.0,  999.0,  999.0,  999.0,  999.0,  999.0,  999.0,  999.0,  999.0,  999.0,  999.0,  999.0,  999.0,  999.0,  999.0,  999.0,  999.0,  999.0,  999.0,  999.0,  999.0,  999.0,  999.0,  999.0,  999.0,  999.0,  999.0,  999.0,  999.0,  999.0,  999.0,  999.0,  999.0,  999.0,  999.0,  999.0,  999.0,  999.0,  999.0,  999.0,  999.0,  999.0,  999.0,  999.0,  999.0,  999.0,  999.0,  999.0,  999.0,  999.0,  999.0,  999.0,  999.0
2008/10/01 11:30,   -0.4,   -0.5,   -1.2,   -0.2,   -0.0,   -0.2,   -0.2,    0.1,    1.3,    1.8,    2.2,    2.0,    2.1,    2.3,    2.4,    2.8,    2.6,    3.0,    2.9,    2.3,    2.5,    2.3,    2.9,    3.3,    2.9,    2.6,    2.2,    1.5,    1.9,    1.2,    0.8,    0.5,    2.1,    1.9,    2.0,  999.0,  999.0,  999.0,  999.0,  999.0,    2.5,    2.0,    1.2,  999.0,   -1.1,  999.0,  999.0,   -2.7,  999.0,  999.0,  999.0,  999.0,  999.0,  999.0,  999.0,  999.0,  999.0,  999.0,  999.0,  999.0,  999.0,  999.0,  999.0,  999.0,  999.0,  999.0,  999.0,  999.0,  999.0,  999.0,  999.0,  999.0,  999.0,  999.0,  999.0,  999.0,  999.0,  999.0,  999.0,  999.0,  999.0,  999.0,  999.0,  999.0,  999.0,  999.0,  999.0,  999.0,  999.0,  999.0,  999.0,  999.0,  999.0,  999.0,  999.0,  999.0,  999.0,  999.0,  999.0
2008/10/01 11:40,   -0.0,   -0.4,   -0.7,   -0.4,    0.2,   -0.3,   -0.1,    0.3,    1.0,    1.2,    1.2,    1.3,    2.0,    2.3,    2.3,    2.1,    2.5,    1.8,    1.8,    1.8,    2.0,    2.2,    2.0,    2.2,    1.9,    2.1,    2.1,    1.5,    1.6,    1.2,    1.3,    1.6,    0.4,    2.0,    2.2,  999.0,    1.7,  999.0,  999.0,  999.0,    1.4,    0.8,    0.6,  999.0,  999.0,   -2.3,   -2.6,   -2.9,  999.0,  999.0,  999.0,  999.0,  999.0,  999.0,  999.0,  999.0,  999.0,  999.0,  999.0,  999.0,  999.0,  999.0,  999.0,  999.0,  999.0,  999.0,  999.0,  999.0,  999.0,  999.0,  999.0,  999.0,  999.0,  999.0,  999.0,  999.0,  999.0,  999.0,  999.0,  999.0,  999.0,  999.0,  999.0,  999.0,  999.0,  999.0,  999.0,  999.0,  999.0,  999.0,  999.0,  999.0,  999.0,  999.0,  999.0,  999.0,  999.0,  999.0,  999.0
2008/10/01 11:50,  999.0,  999.0,    0.0,    0.4,    0.6,   -0.0,   -0.2,    0.7,    0.4,    0.0,    0.4,    0.1,    0.8,    1.5,    1.4,    2.2,  999.0,    2.4,  999.0,    2.6,    2.2,    2.0,    2.5,    2.8,    2.8,    3.3,    3.3,    2.9,    2.4,    2.5,    1.8,  999.0,    1.4,    1.5,    2.0,  999.0,    1.9,    1.6,  999.0,  999.0,    2.0,  999.0,  999.0,   -1.3,   -1.8,   -2.1,   -2.2,   -2.8,  999.0,  999.0,  999.0,  999.0,  999.0,  999.0,  999.0,  999.0,  999.0,  999.0,  999.0,  999.0,  999.0,  999.0,  999.0,  999.0,  999.0,  999.0,  999.0,  999.0,  999.0,  999.0,  999.0,  999.0,  999.0,  999.0,  999.0,  999.0,  999.0,  999.0,  999.0,  999.0,  999.0,  999.0,  999.0,  999.0,  999.0,  999.0,  999.0,  999.0,  999.0,  999.0,  999.0,  999.0,  999.0,  999.0,  999.0,  999.0,  999.0,  999.0,  999.0
2008/10/01 12:00,    0.0,    0.1,    0.1,    0.1,   -0.6,   -0.8,   -0.8,   -0.2,    0.2,    0.6,    0.5,    0.7,    0.5,    1.4,    2.5,    2.6,    2.0,    0.5,    1.3,    1.6,    1.7,    2.1,    2.9,    3.8,    3.8,    3.4,    3.2,    3.1,    3.7,  999.0,    2.6,    2.5,    2.2,    2.3,    2.3,    1.9,    2.0,  999.0,  999.0,  999.0,    2.2,    1.6,   -0.6,   -0.8,   -1.4,   -1.5,   -1.9,   -1.7,  999.0,  999.0,  999.0,  999.0,  999.0,  999.0,  999.0,  999.0,  999.0,  999.0,  999.0,  999.0,  999.0,  999.0,  999.0,  999.0,  999.0,  999.0,  999.0,  999.0,  999.0,  999.0,  999.0,  999.0,  999.0,  999.0,  999.0,  999.0,  999.0,  999.0,  999.0,  999.0,  999.0,  999.0,  999.0,  999.0,  999.0,  999.0,  999.0,  999.0,  999.0,  999.0,  999.0,  999.0,  999.0,  999.0,  999.0,  999.0,  999.0,  999.0,  999.0
2008/10/01 12:10,    0.1,   -0.3,   -0.2,   -0.7,   -0.6,   -0.6,   -0.8,   -0.5,   -0.4,    0.3,    1.2,    1.8,    1.9,    1.7,    1.9,    2.0,    2.3,    1.7,    1.7,    2.3,    2.9,    2.5,    4.2,    5.1,    5.3,    4.8,    5.1,    5.0,    4.1,    5.9,    4.3,    4.6,    3.1,    3.8,    3.3,    5.1,  999.0,  999.0,  999.0,  999.0,  999.0,    3.0,    0.5,    0.2,   -0.3,   -0.1,   -0.4,   -0.4,  999.0,  999.0,  999.0,  999.0,  999.0,  999.0,  999.0,  999.0,  999.0,  999.0,  999.0,  999.0,  999.0,  999.0,  999.0,  999.0,  999.0,  999.0,  999.0,  999.0,  999.0,  999.0,  999.0,  999.0,  999.0,  999.0,  999.0,  999.0,  999.0,  999.0,  999.0,  999.0,  999.0,  999.0,  999.0,  999.0,  999.0,  999.0,  999.0,  999.0,  999.0,  999.0,  999.0,  999.0,  999.0,  999.0,  999.0,  999.0,  999.0,  999.0,  999.0
2008/10/01 12:20,    0.0,    2.6,    1.6,    0.3,    0.6,    2.9,    3.1,    2.8,    2.0,    1.4,    2.5,    3.3,    3.8,    3.0,    3.8,    3.7,    4.6,    4.5,    5.3,    4.0,    6.5,    7.2,    3.4,    4.0,    5.0,    5.3,    6.1,    4.4,    5.9,    2.4,    3.0,    2.9,    2.5,  999.0,   -0.8,    0.2,   -1.0,  999.0,   -4.8,   -5.6,   -6.3,   -7.2,  999.0,   -7.5,  999.0,  999.0,  999.0,   -2.7,  999.0,  999.0,  999.0,   -1.3,    2.5,    2.5,    3.3,  999.0,    3.9,    3.5,    4.1,    4.5,  999.0,    1.8,  999.0,  999.0,  999.0,  999.0,  999.0,  999.0,  999.0,  999.0,  999.0,  999.0,  999.0,  999.0,  999.0,  999.0,  999.0,  999.0,  999.0,  999.0,  999.0,  999.0,  999.0,  999.0,  999.0,  999.0,  999.0,  999.0,  999.0,  999.0,  999.0,  999.0,  999.0,  999.0,  999.0,  999.0,  999.0,  999.0,  999.0
2008/10/01 12:30,    3.8,    0.6,    2.0,  999.0,    5.4,    5.1,  999.0,    2.5,    1.3,    3.1,    2.0,    2.0,   -8.2,   -4.8,  -13.1,  -11.0,  -13.9,  -13.9,  -13.4,  -11.6,  -11.6,  999.0,  999.0,  999.0,  999.0,    0.8,   -4.6,  -12.3,  -15.2,    3.9,  -25.9,   -3.0,   -7.9,    5.3,    4.7,    3.9,    4.3,    2.6,    1.2,    1.3,   -0.6,   -4.0,   -3.6,   -0.1,    0.2,   -8.0,   -6.3,   -5.6,   -6.9,   -8.0,   -3.1,  999.0,   -3.5,  999.0,  999.0,  999.0,  999.0,  999.0,  999.0,  999.0,  999.0,  999.0,  999.0,  999.0,  999.0,  999.0,  999.0,  999.0,  999.0,  999.0,  999.0,  999.0,  999.0,  999.0,  999.0,  999.0,  999.0,  999.0,  999.0,  999.0,  999.0,  999.0,  999.0,  999.0,  999.0,  999.0,  999.0,  999.0,  999.0,  999.0,  999.0,  999.0,  999.0,  999.0,  999.0,  999.0,  999.0,  999.0,  999.0
2008/10/01 12:40,    2.1,    1.1,    0.4,    0.4,    0.6,    0.8,    0.3,    0.8,    0.6,    0.7,    0.6,    0.9,    1.3,    2.0,    2.8,    3.9,    3.2,    2.9,    3.1,    4.0,    4.4,    4.8,    4.1,    4.4,    5.9,    3.8,  999.0,    5.3,    4.8,    4.5,    6.5,    5.7,    4.7,    5.3,    6.3,    4.0,    7.9,    6.4,    2.8,    4.4,    3.4,    0.8,    0.8,    0.6,  999.0,    0.0,  999.0,   -0.4,   -1.4,   -1.2,   -0.5,   -1.1,   -0.0,    0.3,  999.0,  999.0,  999.0,  999.0,  999.0,  999.0,  999.0,  999.0,  999.0,    1.2,  999.0,  999.0,  999.0,  999.0,  999.0,  999.0,  999.0,  999.0,  999.0,  999.0,  999.0,  999.0,  999.0,  999.0,  999.0,  999.0,  999.0,  999.0,  999.0,  999.0,  999.0,  999.0,  999.0,  999.0,  999.0,  999.0,  999.0,  999.0,  999.0,  999.0,  999.0,  999.0,  999.0,  999.0,  999.0
2008/10/01 12:50,  999.0,    0.6,    0.1,    0.4,    0.2,    0.8,    0.6,    0.3,   -0.4,   -1.4,   -1.6,   -1.4,   -1.2,   -0.7,   -0.3,   -0.9,   -0.2,    0.5,    0.4,    0.7,    0.7,    0.2,   -0.1,    0.2,   -0.1,    0.5,    1.2,    1.3,    0.3,    0.9,    2.1,    3.7,    2.1,    2.3,    2.6,    2.7,    3.1,    3.8,    4.3,    3.2,    3.2,    1.1,    0.1,    0.3,   -0.5,    0.3,    0.2,  999.0,  999.0,  999.0,   -3.8,   -1.9,   -2.8,   -2.8,  999.0,  999.0,  999.0,  999.0,  999.0,  999.0,  999.0,  999.0,  999.0,  999.0,  999.0,  999.0,  999.0,  999.0,  999.0,  999.0,  999.0,  999.0,  999.0,  999.0,  999.0,  999.0,  999.0,  999.0,  999.0,  999.0,  999.0,  999.0,  999.0,  999.0,  999.0,  999.0,  999.0,  999.0,  999.0,  999.0,  999.0,  999.0,  999.0,  999.0,  999.0,  999.0,  999.0,  999.0,  999.0
2008/10/01 13:00,  999.0,   -0.0,    0.4,    0.3,    0.5,   -0.2,    0.0,    0.0,    0.1,   -0.1,    0.6,  999.0,  999.0,    0.2,    1.7,  999.0,  999.0,    0.1,  999.0,  999.0,  999.0,    0.7,   -2.1,  999.0,  999.0,  999.0,   -7.1,   -7.4,    2.0,   -2.6,   -7.7,  999.0,  -19.6,  -25.9,  -23.7,  -24.0,  999.0,  -16.9,   -4.9,  999.0,  -12.3,    8.6,   -1.1,  999.0,  999.0,  999.0,    6.1,  999.0,    3.6,    3.6,    2.2,  999.0,   -0.6,   -0.3,  999.0,  999.0,  999.0,  999.0,  999.0,  999.0,  999.0,  999.0,  999.0,  999.0,  999.0,  999.0,  999.0,  999.0,  999.0,  999.0,  999.0,  999.0,  999.0,  999.0,  999.0,  999.0,  999.0,  999.0,  999.0,  999.0,  999.0,  999.0,  999.0,  999.0,  999.0,  999.0,  999.0,  999.0,  999.0,  999.0,  999.0,  999.0,  999.0,  999.0,  999.0,  999.0,  999.0,  999.0,  999.0
2008/10/01 13:10,  999.0,    0.1,   -4.7,    0.0,   10.9,    1.9,    2.6,    2.0,    3.2,   -3.8,   -5.3,  999.0,  999.0,   11.5,    9.6,   16.1,    7.9,  -10.4,    6.7,   23.2,   15.1,   10.1,    9.3,  999.0,   19.3,    7.0,   22.6,    6.9,   22.7,   14.8,    2.1,    2.4,  -11.6,   14.0,   -2.7,    0.3,    2.0,   -0.9,    3.6,    7.1,    9.5,    0.1,    2.3,  999.0,  999.0,  999.0,  999.0,    8.8,   15.4,   11.4,   -0.2,  999.0,   -7.0,   -2.2,    7.1,  999.0,    2.7,  999.0,    0.3,    1.4,   -2.9,  999.0,    0.0,  999.0,  999.0,  999.0,  999.0,   -2.8,  999.0,  999.0,  999.0,   -1.5,  999.0,  999.0,  999.0,  999.0,  999.0,  999.0,    9.0,    4.4,  999.0,  999.0,  999.0,  999.0,  999.0,  999.0,  999.0,  999.0,  999.0,  999.0,  999.0,  999.0,  999.0,  999.0,  999.0,  999.0,  999.0,  999.0,  999.0
2008/10/01 13:20,  -29.1,  -28.3,  -21.2,  -17.5,  -17.6,  -17.4,   -9.2,   -9.2,   -9.7,  -14.7,  -20.4,  -19.8,   -7.6,  -12.2,  -14.5,  -18.8,  -18.9,  -14.4,  -19.3,   -8.2,  -14.8,  -14.4,  -17.0,  -21.9,  -24.4,  -28.2,  -30.0,  -27.8,   -7.9,   -0.0,   -2.3,  999.0,  -24.6,   -7.3,   12.2,   26.3,   26.7,  999.0,   14.1,   16.6,  999.0,  999.0,    0.7,   10.5,    0.9,   -7.2,    2.8,  999.0,   18.4,  999.0,  999.0,    1.9,  999.0,  999.0,   16.7,  999.0,  999.0,   -2.9,  999.0,  999.0,  999.0,  999.0,  999.0,   -5.7,  999.0,  999.0,  999.0,  999.0,  999.0,  999.0,  999.0,  999.0,  999.0,  999.0,  999.0,  999.0,  999.0,  999.0,  999.0,  999.0,  999.0,  999.0,  999.0,  999.0,  999.0,  999.0,  999.0,  999.0,  999.0,  999.0,  999.0,  999.0,  999.0,  999.0,  999.0,  999.0,  999.0,  999.0,  999.0
2008/10/01 13:30,  -28.7,  -29.4,  -30.0,  -29.4,  -29.6,  -30.9,  -22.6,  -18.8,  -18.9,  -16.6,  -12.7,    1.0,   -8.2,  999.0,  999.0,  999.0,  999.0,   14.6,    8.6,   -3.4,    1.2,    1.2,   -1.9,   -1.2,   -7.6,  -20.8,  -11.2,  -15.5,  -16.0,  -22.3,  -32.4,  999.0,  999.0,  999.0,  999.0,  999.0,  999.0,  999.0,  999.0,  999.0,  999.0,  999.0,  -33.9,    5.1,  999.0,  999.0,  999.0,    1.2,    2.1,  999.0,  999.0,  999.0,  999.0,    2.0,  999.0,  999.0,  999.0,  999.0,    0.4,  999.0,  999.0,  999.0,  999.0,  999.0,  999.0,  999.0,  999.0,  999.0,  999.0,   -1.4,  999.0,  999.0,  999.0,  999.0,  999.0,  999.0,  999.0,  999.0,  999.0,  999.0,  999.0,  999.0,  999.0,  999.0,  999.0,  999.0,  999.0,  999.0,    0.7,  999.0,  999.0,  999.0,  999.0,  999.0,   -0.5,  999.0,  999.0,  999.0,  999.0
2008/10/01 13:40,  -30.3,  -29.4,  -29.3,  -29.3,  -29.4,  -29.9,  -29.8,  -31.0,  -31.3,  -31.3,  -31.9,  -32.1,  -32.5,  -32.8,  -33.9,  -13.8,  -14.4,   -1.7,   -1.3,   -1.9,  999.0,   -9.3,   -8.6,  -16.1,  -15.9,  -16.9,   -9.1,  -16.0,  -11.2,   -8.7,   -8.3,  -21.8,  -21.2,  -14.6,  -15.3,  999.0,  -15.3,  -30.8,  -30.7,  999.0,   -7.1,   -1.5,   -0.5,    0.3,    1.9,  999.0,    1.2,    0.6,   -0.0,    0.1,    2.2,   -0.3,   -0.4,    0.7,    0.9,    0.9,  999.0,    1.7,    2.5,    2.5,    1.9,    1.9,    1.0,    1.0,    0.5,  999.0,  999.0,   -4.0,   -3.2,  999.0,   -6.0,   -6.1,   -6.1,  999.0,   -7.1,   -7.0,   -5.6,   -6.0,   -5.5,  999.0,   -3.2,   -4.2,   -0.9,   -4.1,   -1.1,    0.9,   -0.1,    2.8,    3.3,    3.4,    3.2,  999.0,  999.0,    1.2,  999.0,   -1.4,   -4.1,  999.0,  999.0
2008/10/01 13:50,  -29.3,  -27.7,  -27.2,  -27.1,  -26.3,  -26.4,  -26.5,  -26.5,  -20.2,  -20.9,  -18.3,  -20.2,  -28.6,   -3.9,    1.9,   -2.6,   -4.3,   -0.9,   -1.4,   -1.6,   -0.9,   -1.4,   -1.4,   -1.1,   -0.9,   -0.2,   -0.6,    0.1,    0.7,    0.9,    1.6,    1.6,    2.3,    2.0,  -14.0,  -17.2,  -24.9,  -29.3,  -25.6,  -23.6,  -22.7,  -29.0,   -3.3,   -6.5,   -1.2,   -2.1,    3.7,   -8.2,   -9.1,   -9.2,    6.3,    3.9,    4.7,    3.6,  999.0,    2.4,  999.0,   -0.0,    1.6,    3.6,    3.8,    4.5,  999.0,    3.4,    2.9,  999.0,  999.0,   -3.5,  999.0,   -6.2,  999.0,  999.0,  999.0,  999.0,  999.0,  999.0,  999.0,  999.0,  999.0,  -11.9,  -13.8,  -13.2,  999.0,  999.0,  -13.4,  -14.5,  -16.0,  -12.4,  -15.3,  -15.7,  -13.3,  -13.1,  -11.9,  -11.0,  -11.0,  -10.6,  -12.1,   -8.8,  999.0
2008/10/01 14:00,  -28.1,  -27.7,  -18.4,  -19.7,  -17.6,  -16.7,  -16.9,  -16.9,  -17.2,  -15.9,  -17.0,  -27.8,  -20.7,  -22.9,  -21.6,  999.0,  999.0,    0.5,   -0.0,   -0.6,   -1.5,   -1.1,   -1.1,   -1.7,   -2.0,   -2.7,   -2.9,   -3.1,   -1.0,    0.7,    1.8,    3.7,    3.9,    4.1,    4.0,    4.4,    5.2,    5.9,    5.6,    4.9,    4.1,    3.5,    3.1,    4.0,    4.2,    4.5,    4.6,    4.0,    3.7,    3.3,    3.8,    3.9,    4.1,    2.6,    4.1,    4.1,  999.0,  999.0,  999.0,  999.0,  999.0,  999.0,  999.0,  999.0,  999.0,  999.0,    0.5,    0.6,    0.0,   -0.1,   -0.9,   -1.0,   -1.2,   -1.6,   -2.9,   -2.4,   -2.4,  999.0,  999.0,  999.0,  999.0,   -2.2,   -3.4,   -3.9,   -5.5,  999.0,  999.0,  999.0,  999.0,   -3.8,   -3.4,   -2.3,   -1.2,  999.0,  999.0,  999.0,   -3.6,   -3.9,   -3.3
2008/10/01 14:10,  999.0,   -8.0,   -7.9,  -11.4,  -16.6,  -17.0,  -11.9,   -4.3,   -8.9,   -9.7,  -14.1,  -27.1,  -16.2,  -13.0,  999.0,  999.0,    6.2,    5.2,    5.7,    5.2,    3.6,    2.4,    1.2,    0.5,    0.7,   -0.2,    0.2,   -0.8,    1.0,    1.4,    2.3,    3.0,    3.3,    3.5,    2.4,    1.8,    1.0,    0.4,    1.1,    1.9,    2.3,    1.7,    1.9,    2.1,    1.8,    2.1,    1.3,    1.1,    0.7,  999.0,  999.0,  999.0,  999.0,    1.1,    2.2,    2.5,    3.2,    3.6,    4.8,    4.9,  999.0,    5.9,    4.8,    5.6,  999.0,    4.0,    2.8,    3.0,    3.3,    5.1,  999.0,  999.0,  999.0,  999.0,  999.0,  999.0,  999.0,   -6.6,   -7.4,   -6.9,   -7.5,   -8.0,   -7.4,   -7.9,   -8.7,   -8.8,   -8.9,   -8.9,   -9.2,   -7.4,   -6.3,   -8.5,   -7.7,  -10.0,   -6.6,  999.0,   -5.2,   -4.4,  999.0
2008/10/01 14:20,    8.7,    9.7,   10.1,   10.4,   10.7,   10.4,    9.9,    9.5,    8.5,    7.5,    7.1,    6.6,    6.1,    6.5,    5.8,    5.7,    5.7,    5.6,    4.8,    4.6,    3.0,    2.8,    1.5,    0.2,   -0.6,   -1.4,   -1.7,   -1.5,   -0.6,    0.5,    1.0,    1.9,    3.0,    3.4,    3.1,    3.3,    3.3,    2.5,    2.7,    3.4,    4.7,    4.9,    5.3,    4.9,    4.4,    4.0,    3.3,    2.6,    2.0,    1.7,    1.3,    1.1,    1.0,    1.0,    1.4,    1.9,    2.4,    3.3,    3.5,    3.7,    3.9,    3.6,    4.1,    3.9,    3.6,    2.9,    2.3,  999.0,  999.0,   -0.7,  999.0,  999.0,  999.0,  999.0,   -7.4,   -7.6,  999.0,   -8.0,  999.0,  999.0,  999.0,  999.0,   -9.5,  -10.3,  -11.2,  -11.6,  -13.1,  999.0,  999.0,  999.0,  999.0,   -8.1,  -10.3,  -10.7,  -10.8,  -10.7,  -11.2,  -11.3,  -11.1
2008/10/01 14:30,    8.5,   10.1,   10.8,   11.3,   10.9,   10.4,   10.2,    9.7,    9.2,    8.5,    8.7,    8.5,    7.6,    7.5,    6.4,    6.8,    6.4,    6.4,    6.1,    6.4,    5.9,    5.6,    4.7,    4.1,    3.3,    1.0,   -0.6,   -1.0,   -1.2,   -1.1,    1.0,    1.3,    1.3,    0.9,    1.2,    0.4,    0.3,   -0.4,   -1.6,   -1.6,   -1.2,   -0.6,    0.2,    0.7,    0.3,    0.2,   -0.4,   -0.3,   -0.7,   -1.6,   -1.6,   -1.4,    0.0,   -0.5,    1.6,    2.8,    2.4,    2.4,    0.9,    0.9,  999.0,  999.0,  999.0,  999.0,  999.0,  999.0,  999.0,   -1.1,   -1.4,   -2.2,   -3.0,   -3.3,   -4.4,   -5.5,   -5.8,   -6.4,   -7.6,   -5.8,   -6.8,   -7.1,   -7.5,   -8.3,   -8.2,   -8.4,   -8.6,   -9.0,   -9.2,   -9.2,   -8.6,   -8.0,   -7.3,   -6.7,   -6.3,   -5.9,   -6.2,   -6.5,   -6.7,   -7.4,   -7.6
2008/10/01 14:40,    9.9,   11.5,   12.1,   11.7,   10.3,   10.5,   10.2,    9.7,    8.9,    8.7,    8.3,    8.7,    7.9,    7.0,    7.3,    6.5,    6.4,    6.9,    6.8,    6.5,    4.4,  999.0,    4.9,    3.5,    2.6,    0.9,    0.7,    0.2,    1.2,    0.4,   -0.1,    1.2,    1.8,    3.1,    3.0,    2.3,    1.9,    0.6,    1.5,    2.0,    2.1,    3.4,    3.4,    3.1,    2.1,    1.2,   -0.2,   -0.5,   -1.0,   -0.8,   -0.9,   -1.1,   -1.5,   -1.1,   -1.9,   -2.0,   -2.9,   -3.6,   -3.7,   -3.0,   -2.9,   -2.7,   -2.7,   -2.8,   -3.9,   -5.0,   -5.8,   -5.9,   -5.6,   -5.3,   -5.8,   -6.5,   -6.4,   -7.4,   -7.3,   -7.5,   -7.6,   -6.8,   -7.1,   -7.6,   -8.0,   -8.5,   -8.4,   -8.4,   -8.2,   -7.7,   -7.1,   -7.0,   -6.7,   -7.1,   -6.9,   -7.3,   -7.4,   -7.6,   -7.9,   -7.8,   -7.9,   -7.9,   -8.1
2008/10/01 14:50,    9.9,  999.0,  999.0,    9.3,  999.0,   11.6,   11.1,   10.7,   10.5,   11.0,    9.8,    8.1,    6.9,    6.0,    5.8,    5.8,    5.6,    5.3,    5.3,    4.4,    4.1,    2.4,    1.2,   -0.1,   -1.4,   -1.4,   -0.9,   -0.1,   -0.5,   -0.6,   -1.1,   -0.7,   -0.4,   -0.9,    0.4,    0.4,    0.3,    1.0,    0.9,    0.9,    1.8,    1.9,    1.6,    2.1,    2.4,  999.0,  999.0,  999.0,  999.0,    1.6,    2.2,    1.6,    1.3,    1.0,    0.9,    0.5,   -0.6,   -1.7,   -2.8,   -3.5,   -3.3,   -3.0,   -2.8,   -2.6,   -3.0,   -3.1,   -3.6,   -4.0,   -4.7,   -4.9,   -4.9,   -4.8,   -5.1,   -6.2,   -7.0,   -8.0,   -8.6,   -9.1,   -8.9,   -9.4,  -10.1,   -9.8,  -10.3,  -10.2,  -10.3,  -10.0,   -9.9,   -9.5,   -9.0,   -8.6,   -8.5,   -8.6,   -9.1,   -9.2,   -9.4,   -9.8,  -10.3,  -10.7,  -11.1
2008/10/01 15:00,  999.0,   11.8,   12.8,   13.0,   13.0,   12.4,   11.1,   10.2,    9.7,    9.1,    8.3,    7.7,    7.2,    6.9,    6.2,    5.1,    4.5,    4.6,    3.6,    2.9,    2.9,    2.5,    1.2,   -1.1,   -1.7,   -1.4,   -0.8,   -0.5,    0.1,    0.7,    1.3,    1.4,    1.1,    0.2,    1.0,    0.9,    1.4,    1.6,    1.5,    1.6,    1.4,    1.3,    1.6,    2.1,    2.1,    2.5,    2.7,    2.9,    2.3,    2.2,  999.0,  999.0,    1.3,    0.8,   -0.5,   -1.9,   -3.5,   -4.5,   -4.6,   -5.4,   -5.1,   -5.0,   -4.6,   -4.6,   -4.7,   -4.6,   -5.0,   -6.0,   -6.4,   -6.3,   -6.6,   -7.2,   -6.8,   -6.9,   -7.2,   -7.9,   -9.8,   -9.3,   -9.8,  -10.0,  -10.0,  -10.4,  -10.7,  -10.8,  -11.2,  -11.2,  -11.1,  -10.8,  -10.0,   -9.7,   -9.3,   -8.9,   -8.9,   -8.8,   -8.7,   -8.4,   -8.6,   -8.4,   -8.5
2008/10/01 15:10,   12.4,   13.1,   13.1,   12.6,   11.9,   11.5,   11.3,   10.5,    9.9,    9.4,    8.8,    8.2,    7.6,    7.2,    6.7,    5.5,    4.4,    3.7,    3.5,    3.1,    2.6,    1.8,    0.5,   -0.9,   -1.5,   -1.2,   -0.5,   -0.6,   -0.3,    0.2,    0.4,    0.0,    0.0,   -0.3,   -0.6,   -0.2,    0.3,    0.1,   -0.5,    0.1,    0.5,    0.9,    1.7,    2.4,    2.6,    2.5,    2.8,    3.3,    3.2,    3.0,    2.4,    1.7,    1.0,    0.8,    0.6,   -0.4,   -2.0,   -3.5,   -4.6,   -5.0,   -4.9,   -4.2,   -3.6,   -3.4,   -3.2,   -3.2,   -3.8,   -4.7,   -5.1,   -5.0,   -5.2,   -5.4,   -5.5,   -5.4,   -5.2,   -4.8,   -4.7,   -4.8,   -5.5,   -5.8,   -6.1,   -6.6,   -6.8,   -7.8,   -9.1,  -10.0,  -10.5,  -10.4,  -10.3,  -10.2,  -10.6,  -11.0,  -10.7,  -10.1,  -10.0,  -10.1,  -10.0,   -9.5,   -9.7
2008/10/01 15:20,  999.0,   11.6,    9.8,   11.9,   11.5,   12.0,   10.8,   10.1,    9.5,    9.2,    8.1,    7.6,    7.4,    7.4,    6.3,    4.9,    4.0,    3.6,    3.8,    3.1,    2.7,    2.0,    0.8,   -0.3,   -0.8,   -0.5,   -0.2,   -0.3,   -0.3,    0.2,    0.1,   -0.2,   -0.5,   -0.9,   -1.4,   -0.8,   -0.1,    0.2,    0.0,    0.6,    0.5,    0.5,    1.1,    1.7,    2.1,    2.0,    2.3,    2.7,    2.9,    3.2,    3.1,    2.6,    1.8,    0.8,    0.2,   -0.5,   -1.6,   -2.9,   -4.5,   -5.2,   -5.3,   -5.2,   -4.7,   -4.2,   -3.9,   -4.2,   -4.8,   -5.2,   -5.6,   -5.7,   -6.1,   -6.3,   -6.4,   -6.3,   -5.9,   -5.8,   -6.1,   -5.6,   -5.3,   -5.0,   -5.5,   -6.4,   -7.5,   -9.0,  -10.3,  -11.2,  -12.5,  -12.5,  -12.5,  -12.3,  -12.2,  -12.1,  -12.0,  -11.8,  -11.4,  -10.8,  -10.1,   -9.5,   -9.6
2008/10/01 15:30,  999.0,  999.0,    6.9,    8.8,   10.1,   10.0,  999.0,  999.0,  999.0,    8.6,    7.7,    7.7,    7.5,    6.8,    6.3,    6.0,    5.6,    4.4,    4.0,    4.3,    3.2,    2.6,    1.5,    0.4,   -0.2,    0.2,    0.1,    0.1,   -0.0,    0.2,    0.1,    0.1,    0.9,    1.9,    1.8,    2.2,    1.8,    2.0,    1.7,    1.8,    1.9,    1.5,    1.2,    1.6,    1.5,    1.0,    1.5,    2.0,    2.5,    2.6,    2.5,    2.2,    1.9,    1.7,    1.4,    1.0,    0.5,    0.0,   -1.0,   -2.4,   -3.6,   -4.6,   -4.9,   -4.5,   -3.8,   -4.2,   -4.7,   -5.4,   -6.0,   -6.7,   -7.1,   -7.4,   -7.9,   -8.0,   -8.2,   -8.0,   -7.7,   -7.5,   -7.3,   -7.6,   -8.2,   -9.4,  -10.5,  -11.7,  -12.7,  -13.1,  -13.1,  -12.7,  -12.4,  -12.1,  -11.9,  -11.3,  -10.4,   -9.2,   -7.1,   -6.5,   -5.6,   -5.0,   -4.7
2008/10/01 15:40,  999.0,   11.6,   13.6,   13.9,   13.8,   13.5,   13.0,   11.8,   10.7,  999.0,    9.5,    7.7,    7.2,    7.0,    7.2,    7.4,    5.9,  999.0,    6.6,  999.0,  999.0,    1.6,    1.3,    1.0,    0.7,    1.1,    1.2,    0.6,    0.6,    0.6,    0.9,    1.1,    1.8,    2.2,    2.9,    2.8,    2.3,    2.6,    2.6,    2.6,    2.0,    2.0,    1.9,    2.0,    1.9,    1.5,    1.5,    2.1,    2.5,    2.7,    2.8,  999.0,    2.2,    1.9,  999.0,  999.0,   -0.8,  999.0,   -4.4,   -5.4,   -5.8,   -5.4,   -5.1,   -4.6,   -4.4,   -5.0,   -6.1,   -7.3,   -7.6,   -7.9,   -8.4,   -8.4,   -8.8,   -8.6,   -9.4,   -9.0,  -10.3,  -10.3,  -11.3,  -12.2,  -13.7,  -14.3,  -14.5,  -14.5,  -14.2,  -13.5,  -12.9,  -12.5,  -11.6,  -10.9,   -9.7,   -8.7,   -7.7,   -7.0,   -5.7,   -4.6,   -4.0,   -3.1,   -2.4
2008/10/01 15:50,  999.0,   11.2,   11.7,   12.0,   12.5,   13.0,   13.0,   12.1,   11.5,   11.1,   10.2,  999.0,  999.0,    7.0,    6.8,    5.6,    4.8,    4.7,    3.8,  999.0,    2.8,    2.5,    2.9,    2.4,    1.7,    2.3,    2.1,    1.6,    1.0,    0.9,    0.8,    1.0,    1.6,    2.0,    2.8,  999.0,  999.0,  999.0,    2.5,  999.0,  999.0,  999.0,  999.0,  999.0,    0.7,  999.0,  999.0,  999.0,    0.7,    1.8,    1.9,    2.1,    1.9,    1.1,    0.3,   -0.5,   -1.3,   -1.7,   -2.5,   -3.2,   -3.9,   -4.7,   -5.2,   -5.7,   -5.8,   -6.0,   -7.1,   -7.9,   -8.5,   -8.8,   -9.4,   -9.7,  -10.5,  -11.4,  -12.3,  -12.6,  -12.9,  -13.1,  -13.2,  -13.3,  -13.1,  -12.8,  -12.1,  -11.5,  -10.7,  -10.0,   -9.0,   -8.2,   -7.6,   -7.0,   -6.4,   -5.8,   -5.1,   -4.3,   -4.2,   -3.9,   -3.6,   -3.4,   -3.3
2008/10/01 16:00,  999.0,   10.1,   12.9,   13.5,   13.2,   12.9,   12.7,    5.5,    4.7,    8.1,   -0.8,   -0.6,    6.0,    6.1,  999.0,    5.2,    5.6,    5.7,    5.7,    5.5,    4.9,    4.7,    4.4,    4.8,    4.3,   -1.0,   -1.5,  999.0,    1.5,    0.6,   -3.8,   -3.7,   -0.7,  999.0,  999.0,  999.0,  999.0,  999.0,  999.0,    0.1,   -0.2,  999.0,  999.0,  999.0,  999.0,  999.0,    1.6,    0.5,    0.5,    0.8,    0.6,    0.5,    0.1,   -0.1,   -0.6,   -1.2,   -1.6,   -2.0,   -2.5,   -3.1,   -3.9,   -4.3,   -5.1,   -5.7,   -6.8,   -7.8,   -8.7,   -9.3,   -9.9,  -10.5,  -10.8,  -11.5,  -11.8,  -12.1,  -11.9,  -12.1,  -12.3,  -12.3,  -12.3,  -12.2,  -12.8,  -11.6,  -10.9,   -9.9,   -9.2,   -8.5,   -7.9,   -7.3,   -6.8,   -5.2,   -4.5,   -4.2,   -3.7,   -3.6,   -3.0,   -3.1,   -3.4,   -3.2,   -3.0
2008/10/01 16:10,  -26.3,  -25.6,  -24.7,  -23.8,  -23.0,  -22.7,  -22.1,  -22.7,  -23.1,  -23.9,  -25.3,  -26.0,  -27.5,  -28.9,  999.0,  -30.2,  -12.4,   -6.1,  -16.1,  -21.4,  -19.1,  -19.5,  -14.6,    1.3,   -8.8,    1.8,    0.9,    0.5,    0.3,   -0.6,   -0.2,   -0.2,   -0.6,   -0.7,   -1.1,   -1.5,   -1.3,   -0.9,   -0.7,   -0.7,   -0.9,   -0.3,  999.0,  999.0,  999.0,  999.0,    1.1,    0.9,    1.4,    1.5,    1.3,    0.7,   -0.1,   -0.9,   -1.3,   -1.7,   -2.1,   -3.1,   -3.8,   -4.1,   -4.7,   -5.4,   -6.3,   -7.2,   -8.0,   -8.5,   -8.6,   -9.0,   -9.2,   -9.2,   -9.6,   -9.7,  -10.2,  -10.3,  -10.2,  -10.1,   -9.9,   -9.7,   -9.3,   -9.0,   -8.6,   -8.0,   -7.6,   -7.2,   -6.8,   -6.7,   -6.6,   -6.4,   -6.1,   -5.7,   -5.6,   -5.5,   -5.4,   -5.4,   -5.5,   -5.5,   -5.5,   -5.4,   -5.7
2008/10/01 16:20,  999.0,  -25.4,  -25.2,  -24.3,  -23.0,  -22.9,  -22.7,  -22.7,  -23.7,  -24.3,  -25.7,  -27.0,  -27.6,  -28.6,  -29.4,  -29.7,  -30.0,  -30.5,  -30.0,  -30.0,  -30.8,  -31.4,  -31.5,  -32.3,  -32.0,  999.0,  999.0,  999.0,  999.0,  999.0,    0.6,   -0.1,   -0.2,   -0.1,   -0.1,   -0.7,   -0.6,    0.0,   -0.3,    0.5,   -0.9,   -0.9,  999.0,  999.0,  999.0,  999.0,    0.6,    0.9,    1.1,    1.2,    0.6,   -1.1,   -2.3,   -2.7,   -2.7,   -2.7,   -3.5,   -4.5,   -4.5,  999.0,  999.0,   -4.7,   -5.4,   -6.4,   -6.2,   -6.2,   -6.2,   -6.4,   -6.3,   -6.2,   -6.3,   -6.4,   -6.8,   -7.6,   -8.1,   -8.4,   -9.1,   -9.2,   -9.4,   -9.4,   -9.5,   -9.5,   -9.8,   -9.9,   -9.1,   -8.9,   -9.1,   -8.8,   -8.5,   -8.3,   -8.4,   -8.2,   -8.0,   -7.9,   -7.7,   -7.8,   -7.9,   -8.0,   -7.6
2008/10/01 16:30,  -26.8,  -26.9,  -25.7,  -24.6,  -24.0,  -23.4,  -23.0,  -23.1,  -24.0,  -24.8,  -26.0,  -26.7,  -27.5,  -28.4,  -29.7,  -29.9,  -29.9,  -21.3,  -19.5,  -19.3,  -19.7,  -23.4,  -13.6,  -16.7,  -13.3,    4.0,    2.8,    1.9,    1.6,    1.6,    1.5,    1.4,    1.0,    0.8,   -0.0,   -0.2,    0.2,    1.4,    1.0,   -0.0,   -0.5,  999.0,  999.0,  999.0,  999.0,  999.0,  999.0,  999.0,    1.4,  999.0,  999.0,  999.0,  999.0,  999.0,  999.0,  999.0,  999.0,  999.0,  999.0,   -6.5,   -6.7,   -7.3,   -6.7,   -6.8,   -7.0,   -6.9,   -7.0,   -6.8,   -6.7,   -6.2,   -6.4,   -6.5,   -6.5,   -6.1,   -6.2,   -6.6,   -7.1,   -7.3,   -7.3,   -7.7,   -8.0,   -8.1,   -8.1,   -8.2,   -8.4,   -8.5,   -8.5,   -8.0,   -7.7,   -7.4,   -7.1,   -7.2,   -7.4,   -7.8,   -8.1,   -8.3,   -8.4,   -8.4,   -8.4
2008/10/01 16:40,  999.0,  -25.8,  -24.5,  -23.7,  -23.2,  -22.7,  -22.3,  -21.7,  -22.3,  -20.5,  -12.2,  -24.8,  999.0,  999.0,    7.6,    7.6,    6.5,    6.0,    5.3,    5.4,    5.9,    5.2,    4.0,    4.6,    4.6,    3.3,    2.4,    2.4,    1.2,    0.0,   -0.5,   -0.2,   -0.3,   -0.7,   -2.3,   -3.4,   -3.7,   -2.7,   -1.8,   -1.7,   -2.0,   -0.3,  999.0,  999.0,  999.0,  999.0,   -2.2,   -2.1,   -2.1,   -3.3,   -3.9,   -4.6,   -4.4,   -4.6,   -4.8,   -5.5,   -6.3,   -6.8,   -7.1,   -7.5,   -7.5,   -7.6,   -7.5,   -7.0,   -6.5,   -6.3,   -6.1,   -5.8,   -5.5,   -5.1,   -5.0,   -4.9,   -4.9,   -4.9,   -5.2,   -5.3,   -5.6,   -5.9,   -6.2,   -6.6,   -6.9,   -7.1,   -7.1,   -6.8,   -6.6,   -6.2,   -6.0,   -6.0,   -6.1,   -6.3,   -6.6,   -6.8,   -6.9,   -7.1,   -7.3,   -7.4,   -7.9,   -7.9,   -7.9
2008/10/01 16:50,  999.0,   10.8,   11.4,   12.4,   15.0,   15.7,   15.0,   13.7,   14.5,   14.0,   12.6,   11.2,   10.1,    9.3,    8.7,    8.1,  999.0,    4.5,    3.4,    2.6,    3.2,    1.8,    2.2,    0.8,    0.4,    0.6,    0.6,   -1.0,   -1.2,   -1.1,   -1.7,    0.3,    0.0,   -0.4,   -1.5,   -2.7,   -2.7,   -3.1,   -3.0,   -3.1,   -2.6,   -2.1,  999.0,  999.0,  999.0,  999.0,   -2.2,   -2.8,   -3.6,   -4.7,   -4.9,   -5.0,   -5.3,   -5.7,   -6.4,   -7.1,   -7.2,   -7.4,   -7.6,   -7.7,   -8.0,   -8.0,   -7.7,   -7.2,   -6.8,   -5.8,   -5.0,   -4.5,   -4.1,   -3.9,   -4.2,   -4.6,   -5.2,   -5.4,   -5.3,   -5.0,   -5.2,   -5.5,   -6.0,   -6.1,   -6.3,   -6.6,   -6.6,   -6.8,   -6.7,   -6.5,   -6.3,   -6.1,   -5.8,   -5.6,   -5.6,   -5.8,   -6.1,   -6.1,   -6.1,   -6.3,   -6.4,   -6.6,   -6.7
2008/10/01 17:00,  999.0,  999.0,  999.0,  999.0,  999.0,   -4.0,   -5.7,   -5.5,   -5.8,   -6.9,  -22.9,  999.0,  999.0,  999.0,  999.0,  999.0,    7.5,    7.1,    6.5,    5.7,    5.0,    3.9,    4.2,    4.3,    4.1,    2.8,    2.4,    1.5,    1.1,    0.5,    0.7,    0.4,    0.1,   -0.8,   -1.5,   -1.8,   -2.0,   -1.6,   -1.0,   -0.9,   -0.6,   -0.9,  999.0,  999.0,  999.0,  999.0,   -2.2,   -2.3,   -2.8,   -3.2,   -4.1,   -5.5,   -6.3,   -7.0,   -7.0,   -7.7,   -7.8,   -7.9,   -7.7,   -7.5,   -7.3,   -6.9,   -6.1,   -5.5,   -5.1,   -4.9,  999.0,   -5.2,   -5.9,   -6.3,   -6.6,   -6.5,   -6.4,   -6.0,   -5.7,   -5.7,   -5.7,   -5.9,   -5.9,   -5.7,   -5.7,   -5.6,   -5.5,   -5.6,   -5.8,   -6.2,   -6.4,   -6.5,   -6.4,   -6.2,   -5.8,   -5.3,   -5.3,   -5.3,   -5.3,   -5.5,   -5.6,   -5.6,   -5.6
2008/10/01 17:10,  -25.7,  -23.9,  -22.8,  -22.4,  -22.4,  -21.9,  -21.7,  -21.8,  -22.2,  -22.6,  -23.0,  -23.0,  999.0,  999.0,  999.0,  999.0,  999.0,    7.2,    6.6,    4.7,    4.7,    4.0,    3.6,    4.3,    4.2,    3.8,    2.7,    1.5,    1.4,    1.3,    1.5,    1.2,   -0.5,   -2.0,   -2.8,   -2.6,   -2.2,   -1.4,   -0.8,   -0.5,   -0.5,   -0.9,  999.0,  999.0,  999.0,  999.0,   -1.9,   -2.1,   -2.6,   -3.8,   -5.3,   -6.2,   -6.8,   -6.8,   -6.5,   -6.5,   -5.9,   -5.9,   -6.1,   -6.4,   -6.4,   -5.8,   -5.2,   -4.9,   -5.4,   -5.9,   -6.4,   -6.6,   -7.0,   -7.4,   -7.5,   -7.5,   -7.0,   -6.0,   -5.2,   -5.2,   -5.4,   -5.9,   -6.0,   -6.0,   -5.9,   -5.8,   -5.7,   -5.5,   -5.5,   -5.3,   -5.3,   -5.2,   -5.3,   -5.4,   -5.5,   -5.1,   -4.7,   -4.7,   -4.8,   -4.9,   -4.9,   -5.0,   -5.2
2008/10/01 17:20,  999.0,  999.0,  -23.5,  -23.5,  -23.0,  -22.7,  -22.0,  -21.7,  -21.0,  -21.5,  -22.1,  -22.5,  999.0,  999.0,  999.0,  999.0,    7.5,    7.4,    7.1,    5.6,    5.3,    4.5,    3.9,    4.0,    4.6,    4.8,    4.4,    3.5,    2.6,    2.0,    1.8,    1.2,   -0.7,   -3.0,   -3.8,   -3.4,   -3.0,   -2.5,   -2.0,   -1.2,   -1.7,  999.0,  999.0,  999.0,  999.0,  999.0,   -2.5,   -3.4,   -4.1,   -5.3,   -6.1,   -6.1,   -5.9,   -5.7,   -5.3,   -5.0,   -4.9,   -5.3,   -5.9,   -6.3,   -6.0,   -5.7,   -5.7,   -6.3,   -7.1,   -7.8,   -8.3,   -8.7,  999.0,   -9.5,   -9.1,   -8.3,   -8.0,   -7.6,   -7.1,   -7.1,   -7.2,   -6.9,   -6.8,   -6.7,   -6.7,   -6.6,   -6.6,   -6.3,   -6.0,   -5.6,   -5.5,   -5.6,   -5.5,   -5.8,   -6.1,   -6.4,   -6.3,   -5.9,   -6.3,   -5.8,   -6.7,   -6.9,   -7.4
2008/10/01 17:30,  999.0,  999.0,  999.0,   -9.4,   -4.3,   -4.4,  -10.4,   -4.5,  -11.4,  -16.2,  -22.7,  999.0,  999.0,  -23.1,  999.0,   -8.8,  999.0,  999.0,  999.0,  999.0,  999.0,  999.0,    5.6,    5.0,    4.5,    4.3,    5.3,    4.9,    4.4,    3.1,    2.3,    2.4,    0.9,   -0.7,   -2.1,  999.0,   -3.1,   -2.2,   -2.2,   -3.6,   -3.2,  999.0,  999.0,  999.0,  999.0,  999.0,   -2.9,   -4.1,   -4.9,   -5.0,   -4.7,   -4.2,   -4.0,   -3.9,   -3.8,   -3.6,   -3.9,   -4.2,   -4.2,   -3.8,   -3.9,   -4.2,   -4.6,   -6.1,  999.0,   -9.3,   -9.2,   -9.2,   -9.6,   -8.3,   -8.3,   -7.6,   -8.4,   -8.1,   -8.5,   -7.7,   -7.6,   -7.2,   -7.2,   -6.6,  999.0,   -7.3,   -7.1,  999.0,  999.0,   -6.7,   -6.8,   -6.6,   -6.4,   -6.4,   -6.9,   -7.0,   -7.2,   -7.3,   -7.6,   -8.1,   -8.1,   -8.9,   -8.9
2008/10/01 17:40,  999.0,  999.0,  999.0,  -23.6,  -23.0,  -22.8,  -22.4,  -22.1,  -22.3,  -22.5,  -22.5,  -23.1,  -23.0,  -23.9,  -25.0,  -26.0,  -25.8,  999.0,  999.0,  999.0,    6.8,    5.8,    5.5,    5.1,    4.4,    3.8,    5.3,    6.2,    5.5,    4.2,    3.1,    2.7,    2.4,    1.0,   -0.2,   -2.3,   -2.4,   -2.2,   -1.9,   -2.8,   -2.9,  999.0,  999.0,  999.0,  999.0,  999.0,  999.0,   -4.1,   -4.3,   -3.9,   -3.4,   -3.7,   -4.0,   -4.3,   -4.6,   -5.0,   -5.1,   -5.1,   -5.2,   -4.8,   -4.3,   -4.5,   -5.3,   -6.6,   -8.2,  999.0,  999.0,  999.0,   -9.9,   -9.4,   -8.9,   -7.8,   -7.2,   -6.3,   -6.3,   -6.3,   -6.7,   -7.0,   -7.3,   -7.7,   -7.3,   -7.7,   -7.5,   -6.7,   -6.6,   -6.8,   -6.7,   -6.9,   -7.2,   -7.4,   -7.7,   -7.6,   -8.1,   -7.9,   -8.2,   -8.6,   -9.2,   -9.6,  -10.0
2008/10/01 17:50,  999.0,  999.0,   -6.2,   -5.6,   -5.8,  -14.1,   -5.2,  999.0,   -8.5,  -15.1,  -17.6,  -22.2,  -22.3,  -23.7,  999.0,  999.0,  999.0,  999.0,  999.0,  999.0,  999.0,  999.0,    8.1,    6.6,    6.1,    5.3,    4.8,    3.6,    5.8,    5.0,  999.0,  999.0,  999.0,  999.0,    2.3,    0.6,   -0.3,   -1.7,   -1.6,   -1.7,  999.0,  999.0,  999.0,  999.0,   -1.8,   -2.9,   -4.2,   -4.3,   -4.3,   -4.8,   -5.2,   -4.8,   -5.3,   -6.4,   -6.6,   -6.8,   -7.1,   -7.5,   -7.0,   -6.2,   -6.2,   -6.7,   -7.2,   -8.2,   -9.2,   -9.6,   -9.4,   -8.8,   -8.0,   -7.6,   -7.6,   -7.8,   -8.0,   -8.2,   -8.4,   -8.4,   -8.5,   -8.7,   -8.8,   -8.4,   -8.2,   -8.1,   -8.3,   -8.5,   -9.1,   -9.4,   -9.1,   -9.3,   -9.3,   -9.4,   -9.7,   -9.6,   -9.6,   -9.7,  -10.2,  -10.6,  -10.8,  999.0,  -11.7
2008/10/01 18:00,  999.0,  999.0,    6.5,    7.4,    8.7,    8.8,   12.9,   13.9,   13.3,   13.4,   12.8,   12.2,   13.1,   12.3,   11.5,   11.6,   12.2,   11.3,    9.8,    8.2,    7.3,    7.2,  999.0,  999.0,  999.0,  999.0,  999.0,    2.7,    4.4,    4.5,    3.8,    4.0,    3.8,    3.0,    3.0,    2.7,    2.1,    1.3,    0.2,  999.0,  999.0,  999.0,  999.0,  999.0,  999.0,   -1.2,   -2.3,   -2.1,   -2.3,   -3.5,   -4.6,   -5.1,   -5.1,   -5.5,   -6.0,   -6.8,   -7.4,   -7.4,   -6.9,   -6.4,   -6.7,   -7.4,   -8.0,   -8.4,   -8.5,   -8.3,   -8.0,   -7.9,   -7.9,   -8.0,   -8.0,   -7.8,   -7.8,   -8.2,   -8.5,   -8.9,   -9.0,   -9.1,   -9.4,   -9.4,   -9.5,   -9.9,  -10.1,   -9.9,   -9.6,   -9.1,   -8.9,   -9.1,   -9.5,   -9.7,  -10.0,  -10.1,  -10.2,  -10.0,   -9.9,   -9.7,   -9.7,   -9.5,   -9.4
2008/10/01 18:10,  999.0,  999.0,  999.0,  999.0,  999.0,  999.0,  999.0,  999.0,  999.0,   -5.6,   -5.4,   -0.0,    1.2,  999.0,  999.0,   -0.1,   -0.7,    2.0,    9.2,    7.8,    7.2,    6.9,    5.7,    4.8,    4.5,    4.4,    4.9,    6.2,    6.4,    5.9,   -1.9,    4.5,    5.0,    4.4,   -2.9,   -3.4,    1.8,    0.7,   -0.2,    0.2,  999.0,  999.0,  999.0,  999.0,  999.0,  999.0,  999.0,  999.0,   -3.5,   -3.7,   -4.3,   -5.3,   -5.9,   -6.3,   -6.8,   -7.4,   -7.7,   -7.3,   -6.8,   -7.0,   -7.7,   -8.5,   -8.9,   -7.8,   -6.8,   -6.5,   -6.5,   -7.5,   -8.5,   -8.9,   -9.3,   -9.4,   -9.3,   -9.3,   -9.4,   -9.3,   -9.2,   -9.2,   -9.3,   -9.5,   -9.7,   -9.9,  -10.0,  -10.1,   -9.9,   -9.3,   -9.3,   -9.5,   -9.5,   -9.8,   -9.8,   -9.9,   -9.5,   -8.9,   -9.1,   -8.8,   -8.5,  999.0,  999.0
2008/10/01 18:20,  999.0,  999.0,    0.4,    0.7,   -5.9,    0.6,    0.6,    0.9,   -4.6,  -10.1,   -1.2,   -5.3,   -1.8,  -23.0,  999.0,  -11.5,   -3.6,   -7.7,   -8.8,   -3.6,  999.0,    6.4,  999.0,  999.0,  999.0,    6.3,    5.4,    5.8,  999.0,    5.6,    4.7,  -12.8,    1.0,   -2.4,   -6.2,  -12.0,    3.9,  999.0,  999.0,  999.0,  999.0,  999.0,  999.0,  999.0,  999.0,   -1.8,   -2.0,   -2.5,   -2.7,   -2.9,   -3.7,   -4.3,   -4.9,   -5.6,   -6.2,   -6.7,   -7.6,   -8.3,   -8.6,   -8.4,   -8.4,   -8.7,   -8.5,   -7.8,   -7.1,   -7.1,   -7.4,  999.0,  999.0,  999.0,  999.0,  -10.2,   -8.7,   -9.7,   -8.0,   -7.7,   -8.0,   -8.6,   -9.1,   -9.4,  -10.0,  -10.4,  -10.6,  -11.6,  -11.3,  -11.5,  -11.2,  -10.8,  -10.5,  -10.3,  999.0,  999.0,  999.0,  999.0,  999.0,  999.0,  999.0,  999.0,  999.0
2008/10/01 18:30,  999.0,  999.0,  -13.5,  -13.9,  -16.9,  -11.5,  -11.2,  -11.3,  -10.6,  -10.1,   -9.7,  -14.7,  -21.6,  -13.8,  -20.5,  -21.0,  -22.1,  -23.5,  -24.2,  999.0,  999.0,  999.0,  999.0,    5.7,    4.6,    4.8,    4.7,    5.3,    6.0,    6.1,    5.9,    5.4,  999.0,    6.0,    6.3,  999.0,  999.0,  999.0,  999.0,  999.0,  999.0,  999.0,  999.0,  999.0,  999.0,   -0.2,   -0.5,   -0.8,   -1.4,   -1.9,   -2.9,   -4.1,  999.0,   -6.0,   -6.7,   -7.1,   -7.3,   -7.1,   -7.2,   -7.5,   -7.9,   -7.1,   -7.9,   -7.4,   -7.0,   -6.4,   -6.3,   -6.8,   -6.7,  999.0,  999.0,  999.0,  999.0,  999.0,  999.0,  999.0,  999.0,  999.0,  999.0,  999.0,  999.0,  999.0,  999.0,  999.0,  999.0,   -7.5,  999.0,  999.0,  999.0,  -11.4,  999.0,  999.0,  999.0,  999.0,   -8.6,   -8.3,   -8.4,   -8.3,   -8.4
2008/10/01 18:40,  999.0,  999.0,   -8.5,   -8.3,  999.0,  999.0,   -1.9,   -7.1,   -7.1,  -17.0,   -5.0,  -15.5,  -21.7,  -21.0,  -20.7,  -20.7,  -20.7,  -23.3,  999.0,  999.0,  999.0,  999.0,    9.0,  999.0,  999.0,  999.0,    9.2,    9.4,    9.5,   10.3,    9.1,  999.0,  999.0,    7.1,  999.0,  999.0,  999.0,  999.0,    4.5,  999.0,  999.0,  999.0,  999.0,  999.0,    0.7,  999.0,   -0.3,   -1.3,   -1.7,   -2.7,   -4.1,  999.0,   -5.8,   -6.0,   -6.5,   -6.8,   -7.2,   -7.1,   -7.7,   -7.8,   -8.3,   -8.8,   -8.8,   -8.1,   -7.3,   -6.5,   -6.1,   -6.5,   -7.3,   -8.1,   -8.7,   -8.3,   -7.2,   -6.5,   -6.0,   -6.0,   -6.0,  999.0,   -6.3,   -6.2,   -6.4,   -6.3,   -5.5,   -5.4,   -5.0,   -4.6,   -4.8,   -5.1,   -5.6,   -6.3,   -5.6,  999.0,  999.0,  999.0,  999.0,  999.0,  999.0,  999.0,  999.0
2008/10/01 18:50,  999.0,    8.5,    9.7,   10.1,   10.4,   11.0,   11.4,   11.9,    4.8,    4.4,    4.7,    3.6,    1.8,    6.1,  -10.0,  999.0,  999.0,   13.0,   12.3,  999.0,  999.0,  999.0,    9.0,    7.2,    6.0,    7.4,    7.7,  999.0,  999.0,  999.0,  999.0,    4.7,    3.9,    2.6,  999.0,  999.0,  999.0,  999.0,  999.0,  999.0,  999.0,  999.0,  999.0,    0.3,    0.6,    0.7,    0.1,   -1.3,   -2.0,   -3.1,   -4.1,   -5.0,   -5.2,   -5.3,   -5.3,   -5.3,   -5.3,   -5.3,   -5.3,   -5.2,   -5.3,   -5.4,   -5.4,   -5.4,   -5.3,   -5.2,   -5.2,   -5.4,   -5.6,   -5.7,   -5.6,   -5.2,   -4.9,   -4.4,   -3.9,   -3.9,   -3.6,   -3.3,   -3.2,   -3.0,   -3.2,   -3.4,   -3.8,   -4.1,   -4.2,   -4.5,   -4.7,   -5.2,   -5.9,   -6.1,   -6.4,   -6.4,   -6.4,   -6.6,   -6.5,   -6.4,   -6.4,   -6.5,   -6.6
2008/10/01 19:00,    6.8,    8.0,    8.0,    8.6,    8.1,    9.2,    9.8,   11.0,   12.2,   11.3,   12.4,   13.4,   12.9,   13.5,  999.0,  999.0,  999.0,  999.0,  999.0,  999.0,  999.0,    8.0,    7.5,    7.5,    6.4,    5.9,    4.5,    5.0,    5.1,    5.8,    5.8,    6.6,    7.1,    7.7,    8.9,   -5.0,  -11.9,    7.1,  999.0,  999.0,  999.0,  999.0,  999.0,  999.0,    0.9,   -0.3,   -1.6,   -2.6,   -3.8,   -4.6,   -4.7,   -5.0,   -5.1,   -5.1,   -5.5,   -5.7,   -6.0,   -6.3,   -5.7,   -5.5,   -4.9,   -4.2,   -3.1,   -2.6,   -2.4,   -2.3,   -2.0,   -2.2,   -2.6,   -3.0,   -3.2,   -3.3,   -3.2,   -2.9,   -2.7,   -2.6,   -2.4,   -2.4,   -3.2,   -3.7,   -3.2,   -3.6,   -4.1,   -4.4,   -4.4,   -4.5,   -3.9,   -4.1,   -3.9,   -3.7,   -3.6,   -3.5,   -3.8,   -4.7,   -4.6,   -5.9,   -6.4,   -6.5,   -6.6
2008/10/01 19:10,  999.0,    7.2,    7.8,    8.7,    9.1,    9.7,   10.7,   11.8,   11.4,   11.1,   12.0,  999.0,  999.0,  999.0,  999.0,  999.0,  999.0,  999.0,  999.0,  999.0,  999.0,  999.0,  -16.5,  999.0,  -29.6,  -21.8,  -31.6,  -31.5,  -31.2,  -31.7,  -30.7,  -30.5,  -30.4,  -31.0,  -30.8,  -31.1,  -31.3,  999.0,  999.0,  999.0,  999.0,  999.0,  999.0,  999.0,    2.0,    0.4,   -1.0,   -2.4,   -3.6,   -4.6,   -4.4,   -4.5,   -4.6,   -4.7,   -4.0,   -2.6,   -1.7,   -0.9,   -0.5,   -0.2,   -0.6,   -0.8,   -0.9,   -0.7,   -0.7,   -0.6,   -0.6,   -0.5,   -1.0,   -1.6,   -1.9,   -2.1,   -2.3,   -2.7,   -3.3,   -3.4,   -3.9,   -4.0,   -3.7,   -3.3,   -3.2,  999.0,   -4.3,   -4.6,  999.0,  999.0,  999.0,  999.0,   -5.8,  999.0,  999.0,  999.0,  999.0,  999.0,  999.0,  999.0,  999.0,  999.0,  999.0
2008/10/01 19:20,  999.0,  999.0,  -29.4,  -28.7,  -28.4,  -28.4,  -28.0,  -26.5,  -25.4,  -24.8,  -23.3,  -22.5,  -22.2,  -21.8,  -22.6,  -22.7,  -23.2,  -23.6,  -24.9,  -26.0,  -27.2,  -28.4,  -29.4,  -29.7,  -30.2,  -30.2,  -30.0,  -30.3,  -30.0,  -29.6,  -29.3,  -29.6,  -29.2,  -29.8,  -30.0,  -30.0,  -29.9,  -29.4,  999.0,  999.0,  999.0,  999.0,  999.0,  999.0,  999.0,    1.7,   -0.7,   -3.1,   -4.5,   -4.4,   -4.0,   -4.3,   -4.1,   -2.5,   -1.3,   -0.1,    0.5,    1.1,    1.2,    1.4,    1.5,    1.0,    1.3,    0.2,   -0.0,   -0.4,   -0.2,   -0.5,   -0.8,   -2.0,   -2.4,   -2.9,   -3.2,   -3.4,   -4.1,   -4.7,   -5.3,   -6.0,   -6.0,   -5.5,   -5.6,   -5.3,   -5.0,  999.0,  999.0,  999.0,  999.0,  999.0,  999.0,   -4.3,   -4.5,   -4.5,   -4.8,   -5.0,   -5.3,   -5.6,   -5.9,   -6.0,   -6.3
2008/10/01 19:30,  999.0,    3.3,    4.4,  999.0,  999.0,  999.0,  -27.5,  -26.4,  -24.8,  -24.2,  -23.8,  -23.1,  -22.7,  -23.1,  -23.8,  -23.5,  -23.5,  -24.3,  -25.8,  -25.8,  -27.4,  -28.8,  -28.7,  -17.5,  -11.8,  -11.7,   -5.6,  -11.3,  -14.8,  -20.4,  -29.4,  -29.4,  -29.1,  -29.4,  -29.8,  -29.5,  -29.6,  -29.2,  999.0,  999.0,  999.0,  999.0,  999.0,  999.0,  999.0,  999.0,  999.0,   -3.5,   -4.6,   -4.3,  999.0,  999.0,   -4.3,   -2.6,   -2.1,   -1.7,   -1.7,   -1.5,   -1.6,   -1.4,   -1.1,   -0.8,   -0.0,   -1.7,   -2.9,   -3.4,   -3.9,   -4.3,   -4.7,   -5.0,   -5.3,   -5.4,   -5.5,   -5.7,   -5.7,   -5.8,   -6.3,   -6.1,   -5.9,   -5.8,   -5.4,   -5.1,   -4.5,   -4.1,   -4.0,   -4.3,   -4.5,   -4.7,   -4.9,   -5.3,   -5.4,   -5.4,   -5.8,   -6.1,   -6.3,   -6.6,   -6.7,   -6.9,   -7.1
2008/10/01 19:40,  999.0,  999.0,  999.0,  999.0,    7.1,    7.6,   -0.8,    0.7,   -3.9,   -6.3,  -14.2,   -5.4,  999.0,   -4.1,  -10.7,  -13.8,   -0.4,   -7.3,   10.3,    9.8,    8.4,  999.0,  999.0,  999.0,    7.4,  999.0,    6.8,    6.6,    5.6,    6.1,    6.5,    5.2,    4.9,    6.6,  999.0,    6.5,    3.0,    3.6,  999.0,  999.0,    3.6,  999.0,  999.0,  999.0,    2.6,    0.9,   -0.8,   -3.1,   -3.7,   -3.5,   -3.4,   -3.3,   -2.3,   -0.9,   -0.4,   -0.7,   -0.9,   -1.6,   -1.8,   -1.7,   -1.6,   -1.1,   -1.3,   -2.2,   -2.8,   -3.0,   -3.4,   -3.4,   -3.4,   -3.3,   -3.7,   -4.0,   -3.8,   -3.7,   -3.4,   -3.4,   -3.5,   -3.3,   -4.1,   -4.7,   -5.1,   -5.5,   -5.8,   -6.0,   -6.4,   -6.6,   -7.3,   -7.8,   -8.1,   -8.5,   -8.9,   -9.4,   -9.6,  -10.1,  -10.3,  -10.2,  -10.1,   -9.8,   -9.6
2008/10/01 19:50,  999.0,    4.4,    5.5,    6.9,    7.7,    7.5,    8.5,    9.8,   10.9,   11.8,   12.5,   13.8,   14.4,   14.5,   13.5,  999.0,   11.4,    9.8,    9.5,    8.3,    6.7,    6.0,    6.1,    2.6,    2.2,    1.5,    2.7,    1.9,    2.2,  999.0,  999.0,   -0.3,   -1.6,   -0.9,   -0.6,   -0.3,    1.0,   -0.5,  999.0,  999.0,  999.0,  999.0,  999.0,  999.0,  999.0,    1.5,    0.8,   -1.2,   -2.9,   -2.7,   -1.8,   -1.6,   -0.6,   -0.3,   -0.7,   -1.4,   -2.0,   -2.4,   -2.4,   -2.3,   -2.0,   -1.8,   -2.1,   -2.6,   -2.9,   -2.9,   -3.1,   -3.4,   -3.9,   -4.4,   -4.7,   -4.5,   -4.1,   -3.9,   -4.2,   -5.0,   -5.4,   -5.6,   -5.8,   -5.8,   -6.0,   -6.6,   -7.1,   -7.4,   -7.7,   -8.3,   -8.9,   -9.1,   -9.3,   -9.3,   -9.8,  -10.0,  -10.0,  -10.2,  -10.4,  -10.7,  -11.0,  -10.9,  -11.2
2008/10/01 20:00,  999.0,    5.4,    6.2,    7.4,    8.1,    8.1,    7.6,    8.3,    9.4,   11.1,   10.1,    8.1,    8.6,    8.8,    9.4,  999.0,  999.0,  999.0,   10.8,    9.8,    7.9,    6.7,    6.8,    5.0,    3.1,    4.0,    2.5,    3.2,    3.6,    3.4,    3.2,    3.8,    4.1,  999.0,    2.7,    2.9,    4.2,    3.3,    3.3,    2.9,    2.9,  999.0,  999.0,  999.0,  999.0,  999.0,    1.8,    0.3,   -1.6,   -2.0,   -1.4,   -1.0,   -0.6,    0.1,   -0.1,   -1.2,   -2.5,   -3.3,   -3.9,   -4.4,   -4.7,   -4.9,   -5.6,   -5.6,   -5.6,   -5.4,   -5.2,   -5.2,   -5.2,   -4.8,   -4.7,   -4.8,   -5.1,   -5.7,   -6.1,   -6.2,   -5.7,   -5.7,   -5.5,   -6.4,   -7.0,   -7.3,   -8.2,   -8.7,   -9.0,   -9.4,   -9.7,   -9.6,  -10.0,  -10.4,  -10.9,  -10.7,  -10.6,  -10.3,  -10.4,  -10.3,  -10.3,  -10.6,  -10.8
2008/10/01 20:10,  999.0,  999.0,    6.6,    3.3,    6.5,  999.0,    7.5,    8.3,    9.2,    9.2,    9.6,   11.5,  999.0,  999.0,  999.0,  999.0,  999.0,  -15.7,   -7.6,  999.0,  999.0,    6.4,    6.3,    5.3,    5.6,    5.6,    5.2,    5.3,    5.3,    5.2,    5.2,    4.9,    5.0,    4.8,    5.3,    5.1,    5.0,    5.2,    5.1,    5.3,    4.4,  999.0,  999.0,  999.0,  999.0,    1.0,   -0.3,   -1.4,   -2.3,   -2.7,   -2.6,   -2.2,   -1.5,   -0.6,   -1.2,   -2.1,   -2.9,   -2.9,   -3.3,   -4.4,   -5.2,   -5.8,   -5.9,   -5.5,   -5.2,   -5.2,   -5.1,   -4.8,   -4.4,  999.0,  999.0,  999.0,  999.0,  999.0,  999.0,  999.0,  999.0,  999.0,  999.0,  999.0,  999.0,  999.0,   -9.0,   -9.3,   -9.8,  -10.1,   -9.8,  -10.0,  -10.5,  -11.3,  -11.9,  -11.7,  -11.7,  -11.6,  -11.2,  -11.1,  -11.8,  999.0,  999.0
2008/10/01 20:20,  999.0,    4.7,    6.2,    6.9,    8.1,    8.3,    8.2,    8.3,    9.3,   11.0,   11.6,   12.4,   11.7,   11.1,   11.5,   11.0,   11.4,   11.7,   11.0,   10.6,   10.4,    9.4,    7.8,    7.3,    7.2,    7.5,    6.8,    6.7,    6.3,    5.2,    5.3,    5.6,    5.6,    6.5,    6.7,    5.8,    5.3,    5.1,    4.8,    5.7,    4.8,    1.4,  999.0,  999.0,    1.0,   -0.4,   -1.8,   -2.3,   -2.6,   -2.7,   -2.5,   -2.3,   -1.8,   -1.3,   -1.3,   -2.1,   -2.6,   -2.7,   -2.6,   -2.4,   -2.5,  999.0,  999.0,  999.0,  999.0,  999.0,  999.0,  999.0,  999.0,  999.0,  999.0,  999.0,  999.0,  999.0,  999.0,  999.0,  999.0,  999.0,  999.0,  999.0,  999.0,  999.0,  999.0,  999.0,  999.0,  999.0,  999.0,  999.0,  999.0,  999.0,  999.0,  999.0,  999.0,  999.0,  999.0,  999.0,  999.0,  999.0,  999.0
2008/10/01 20:30,  999.0,  999.0,    5.9,    7.5,    8.0,    8.3,    8.0,    8.7,    9.3,   10.0,   10.6,   11.4,   12.3,   12.9,   13.3,   12.9,   13.0,   13.1,   12.4,   11.4,   10.5,    9.5,    8.0,    7.3,    7.4,    6.9,    6.8,    7.1,    5.1,    3.3,  999.0,    2.4,    2.0,    1.3,    2.1,    1.8,    1.6,    1.4,    1.1,    1.2,    1.8,    0.3,    1.2,  999.0,  999.0,   -1.6,   -2.4,   -2.7,   -2.8,   -2.8,   -3.0,   -2.2,   -1.1,   -0.8,   -1.0,   -1.3,   -1.8,   -2.4,   -2.8,   -3.1,   -4.0,   -4.1,   -4.2,   -4.4,   -4.7,   -4.9,   -5.4,   -5.6,   -5.2,   -5.4,   -6.0,   -6.2,   -6.8,   -7.2,   -7.2,  999.0,  999.0,  999.0,  999.0,  999.0,  999.0,  999.0,  999.0,  999.0,  999.0,  999.0,  999.0,  999.0,  999.0,  999.0,  999.0,  999.0,  999.0,  999.0,  999.0,  999.0,  999.0,  999.0,  999.0
2008/10/01 20:40,  999.0,    5.5,    6.1,    6.8,    6.8,    8.8,    8.3,    8.8,    9.6,   11.1,   11.2,   12.0,   13.1,   13.7,   14.4,   14.1,   13.0,   13.0,   12.9,   12.2,  999.0,  999.0,  999.0,    7.9,    6.2,    5.8,    3.0,    1.5,   -0.3,   -0.7,   -1.1,   -0.2,    0.9,    1.9,    2.6,    2.1,    1.7,    1.9,    2.1,    1.4,    1.1,   -0.0,    0.8,    0.1,   -0.1,   -1.3,   -2.6,   -2.5,   -2.8,   -2.7,   -2.0,   -0.9,   -0.4,   -0.6,   -1.3,   -1.8,   -2.5,   -3.1,   -3.3,   -3.5,   -3.9,   -4.2,   -4.3,   -4.3,   -4.3,   -4.3,   -4.3,   -4.6,   -4.7,   -5.1,   -5.3,   -5.3,   -5.5,   -5.7,   -6.0,   -5.6,  999.0,  999.0,  999.0,  999.0,  999.0,  999.0,  999.0,  999.0,  999.0,  999.0,  999.0,  999.0,  999.0,  999.0,  999.0,  999.0,  999.0,  999.0,  999.0,  999.0,  999.0,  999.0,  999.0
2008/10/01 20:50,  999.0,    4.4,    5.4,    6.2,    7.3,    8.3,    9.3,    9.5,    9.9,   10.9,   11.8,   11.9,   12.7,   13.7,   13.8,   13.9,   13.9,   13.3,   13.1,   12.1,    9.9,    8.3,  999.0,    7.3,    5.9,    4.9,    2.1,    0.6,    0.2,    0.5,    0.7,    1.0,    1.5,    2.5,    3.3,    3.4,    2.1,    1.8,    2.2,    2.0,    1.6,    0.5,    1.7,  999.0,  999.0,  999.0,   -1.9,   -1.9,   -1.7,   -1.0,    0.1,    0.7,    0.9,    0.7,    0.2,   -0.8,   -1.6,   -2.4,   -2.9,   -3.6,   -4.0,   -4.6,   -5.0,   -5.1,   -4.9,   -4.6,   -4.5,   -4.5,   -4.5,   -4.7,   -4.8,   -4.9,   -5.1,   -5.1,   -5.1,   -5.4,   -5.1,   -4.7,   -4.2,   -3.9,   -3.9,  999.0,  999.0,  999.0,  999.0,  999.0,  999.0,   -5.4,   -6.3,   -6.9,   -7.3,  999.0,  999.0,  999.0,   -8.3,   -8.5,   -8.7,   -8.4,   -8.2
2008/10/01 21:00,    4.1,    5.2,    5.9,    6.9,    7.9,    8.8,    9.5,   10.0,   10.6,   10.9,   11.4,   12.2,   12.4,   12.2,   10.9,   10.3,    9.7,    9.9,    9.9,    8.8,    8.0,    7.8,    6.4,    6.0,    4.6,    2.5,    1.7,    1.2,    1.9,    2.1,    2.1,    2.7,    2.5,    3.1,    4.6,    4.3,    3.0,    3.5,    2.4,    3.2,  999.0,    1.2,  999.0,  999.0,  999.0,   -0.8,   -1.5,   -1.4,   -1.0,    0.0,    0.4,    0.5,    0.7,    0.7,    1.0,    0.9,    0.5,    0.0,   -0.9,   -1.7,   -2.6,   -3.0,   -3.8,   -4.4,   -4.7,   -4.5,   -4.5,   -4.5,   -4.7,   -4.5,   -5.0,   -5.2,   -5.2,   -5.1,   -5.2,   -5.2,   -4.8,   -4.5,   -4.5,   -4.2,   -4.4,   -5.2,   -5.7,   -5.8,   -5.2,   -5.0,   -4.9,   -5.1,   -5.5,   -6.2,   -7.0,   -7.5,   -7.7,   -7.6,   -7.8,   -8.1,   -8.2,   -8.1,   -8.0
2008/10/01 21:10,    3.8,    5.6,    5.8,    6.6,    7.4,    8.4,    9.0,    9.0,  999.0,  999.0,  999.0,  999.0,  999.0,  999.0,  -23.1,  -23.7,  -23.3,  999.0,  999.0,  999.0,  999.0,    7.6,    6.3,    4.8,    3.0,    1.9,    1.9,    1.7,    0.6,    1.2,    2.6,    3.6,    2.8,    3.5,    3.9,    3.7,    3.8,    3.5,    3.2,    2.2,  999.0,    1.1,  999.0,  999.0,  999.0,  999.0,   -1.5,   -1.0,   -0.2,    0.1,    0.1,    0.0,    0.1,   -0.1,    0.2,    0.5,    0.6,    0.7,    0.5,    0.1,   -0.5,   -1.1,   -2.1,   -3.4,   -4.0,   -3.9,   -3.9,   -4.4,   -4.8,   -5.0,   -5.0,   -4.7,   -4.9,   -5.4,   -5.7,   -5.3,   -4.7,   -4.3,   -4.1,   -4.2,   -4.4,   -4.8,   -5.2,   -5.6,   -5.4,   -5.4,   -5.2,   -5.1,   -5.5,   -5.9,   -6.0,   -6.3,   -6.4,   -6.7,   -6.9,   -7.3,   -7.6,   -7.9,   -8.2
2008/10/01 21:20,  999.0,    5.3,    5.8,    6.4,    7.0,    8.0,    9.0,    9.5,   10.5,   10.9,   11.8,  999.0,  -10.9,  -13.6,   -8.8,   -5.4,   12.4,   11.3,    9.4,    7.2,    6.5,    6.2,    4.7,    3.1,    1.7,    1.6,    1.0,   -0.0,   -0.4,    1.2,    2.3,    3.6,    3.7,    3.9,    4.2,    4.4,    3.9,    3.4,    3.0,    2.4,    1.3,    1.9,  999.0,  999.0,  999.0,  999.0,   -1.6,   -0.8,   -0.1,    0.2,    0.5,    0.1,    0.3,   -0.4,   -1.0,   -1.1,   -0.7,   -0.4,    0.2,    0.7,    0.5,    0.0,   -1.0,   -1.8,   -2.4,   -3.1,   -3.4,   -3.6,   -4.1,   -4.6,   -5.1,   -5.4,   -5.1,   -4.5,   -4.9,   -5.4,   -5.0,   -4.6,   -4.6,   -4.8,   -5.0,   -5.0,   -5.3,   -5.4,   -5.7,   -5.8,   -5.5,   -5.5,   -5.5,   -5.7,   -6.1,   -6.0,   -6.0,   -6.1,   -6.3,   -6.8,   -7.3,   -7.8,   -8.4
2008/10/01 21:30,    2.7,    5.0,    5.8,    7.1,    7.9,    8.4,    9.2,    9.6,    9.7,   10.3,   11.5,   12.1,   12.3,   12.1,   12.2,   11.9,   11.8,   11.1,    9.0,    6.7,    5.6,    4.5,    3.6,    3.1,    1.9,    0.5,    0.5,   -0.6,    1.3,    2.1,    3.6,    4.5,    5.0,    5.4,    4.9,    4.3,    3.2,    2.4,    2.0,    0.7,   -0.1,    1.2,  999.0,  999.0,  999.0,   -1.7,   -0.8,    0.1,    0.4,    0.6,    0.8,    0.4,    0.4,    0.3,   -0.2,   -0.8,   -1.5,   -2.4,   -3.1,   -2.8,   -2.9,   -2.4,   -2.4,   -2.1,   -1.7,   -1.8,   -2.2,   -2.9,   -3.5,   -3.8,   -4.2,   -4.7,   -4.8,   -4.2,   -4.4,   -4.8,   -4.7,   -4.6,   -4.7,   -4.8,   -5.0,   -5.0,   -5.0,   -5.3,   -5.5,   -5.9,   -6.0,   -5.9,   -6.0,   -5.9,   -6.2,   -6.6,   -6.8,   -6.6,   -6.7,   -6.8,   -7.3,   -7.7,   -8.3
2008/10/01 21:40,  999.0,    4.5,    5.0,    5.7,    6.7,    8.0,    8.8,    9.4,   10.0,   10.3,   11.9,   12.8,   13.0,   13.0,   12.6,   12.6,   12.0,   10.8,    8.7,    6.7,    5.6,    4.1,    2.8,    1.6,    1.1,   -0.2,   -0.7,   -0.2,    1.3,    2.5,    4.3,    3.4,    4.1,    3.7,    2.9,    2.4,    1.4,    0.4,   -1.2,   -1.6,   -1.8,  999.0,  999.0,  999.0,  999.0,   -1.4,   -0.2,    0.6,    1.2,    1.8,    1.9,    1.6,    1.7,    1.7,    1.7,    1.4,    1.2,   -0.8,   -2.6,   -3.3,   -3.7,   -3.6,   -3.6,   -3.7,   -3.7,   -3.9,   -3.7,   -3.7,   -3.9,   -4.2,   -4.5,   -4.7,   -4.6,   -4.3,   -4.3,   -4.7,   -5.1,   -5.1,   -5.1,   -5.3,   -5.6,   -6.0,   -6.2,   -6.0,   -6.0,   -6.6,   -6.9,   -6.8,   -6.7,   -6.4,   -6.8,   -7.2,   -7.5,   -7.3,   -7.1,   -7.3,   -7.6,   -7.7,   -8.1
2008/10/01 21:50,  999.0,    4.2,    4.5,    5.4,    6.3,    6.9,    7.9,    9.2,    9.4,   11.0,   12.2,   12.7,   12.6,   12.8,   11.8,   11.3,   10.5,    9.2,    7.3,    6.1,    4.9,    4.0,    3.2,    2.1,    0.7,    0.5,    1.1,    1.5,    1.1,    3.3,    4.4,    3.3,    4.3,    3.1,    2.4,    1.1,   -0.3,   -1.4,   -2.5,   -2.9,   -1.7,   -2.1,  999.0,  999.0,  999.0,  999.0,   -0.3,    0.5,    1.5,    2.3,    2.6,    2.5,    2.1,    1.6,    1.1,    0.8,    0.7,    1.1,    1.0,    0.1,   -0.9,   -2.5,   -2.8,   -3.4,   -4.1,   -4.8,   -5.1,   -5.2,   -4.9,   -4.7,   -4.8,   -4.9,   -5.0,   -4.9,   -4.8,   -4.9,   -4.9,   -4.9,   -5.0,   -5.4,   -5.9,   -6.7,   -7.0,   -7.1,   -7.1,   -7.0,   -7.2,   -7.7,   -7.5,   -7.1,   -6.8,   -7.1,   -7.3,   -7.3,   -7.4,   -7.6,   -7.7,   -7.7,   -7.7
2008/10/01 22:00,    3.3,    4.2,    5.1,    6.4,    7.1,    7.6,    7.9,    8.9,    8.9,    9.8,   10.5,   11.3,   12.0,   12.5,   11.8,   10.0,   10.2,    9.0,    8.2,    7.2,    6.1,    4.2,    3.7,    2.6,    3.1,    1.9,    2.3,    3.2,    3.7,    4.2,    3.5,    3.4,  999.0,    2.8,    1.5,   -0.0,   -1.0,   -0.9,   -0.7,   -2.0,  999.0,  999.0,  999.0,  999.0,  999.0,  999.0,  999.0,    1.6,    2.4,    2.7,    2.8,    2.8,    2.3,    1.1,    0.0,    0.1,    0.3,    0.2,    0.4,    0.7,    0.9,    0.7,   -0.2,   -1.5,   -2.7,   -4.0,   -5.0,   -5.4,   -5.3,   -4.7,   -4.5,   -4.6,   -4.8,   -5.1,   -5.0,   -4.9,   -4.7,   -4.5,   -4.6,   -5.0,   -5.6,   -6.4,   -6.8,   -7.1,   -7.2,   -7.3,   -7.1,   -7.2,   -7.5,   -7.4,   -7.0,   -6.8,   -7.2,   -7.1,   -7.1,   -7.4,   -7.8,   -8.2,   -8.2
2008/10/01 22:10,  999.0,    4.1,    5.2,    6.6,    7.0,    8.7,    8.7,    9.6,  999.0,  999.0,  999.0,  999.0,  999.0,  999.0,  999.0,  999.0,  999.0,  999.0,    9.0,    7.8,    6.7,    5.7,    4.4,    3.3,    2.9,    1.4,    2.3,    2.4,    2.9,    3.8,    3.7,    3.8,    3.3,    2.3,    1.2,    0.1,   -0.6,   -1.2,   -1.9,   -1.6,   -1.6,  999.0,  999.0,  999.0,  999.0,  999.0,  999.0,    3.0,    3.0,    2.9,    2.7,    2.6,    2.8,    2.8,    2.4,    2.2,    2.3,    2.2,    2.1,    1.7,    1.2,    1.0,    0.8,   -0.1,   -1.7,   -3.3,   -4.5,   -5.1,   -4.8,   -4.3,   -4.3,   -4.3,   -4.3,   -4.6,   -4.5,   -4.6,   -4.6,   -4.5,   -4.2,   -4.3,   -4.8,   -5.5,   -6.1,   -6.7,   -7.3,   -7.6,   -7.5,   -7.2,   -7.6,   -7.6,   -7.6,   -7.5,   -7.4,   -7.4,   -7.8,   -8.1,   -8.5,   -8.9,   -9.0
2008/10/01 22:20,  999.0,    4.0,    5.6,    6.5,    7.9,    9.1,    8.2,    8.8,    9.5,   10.9,   12.0,   12.8,   12.6,   12.7,   12.1,   11.3,   10.6,    9.4,    7.4,    6.4,    5.6,    3.8,    2.7,    1.7,    2.8,    2.3,    2.9,    2.7,    2.4,    2.6,    3.0,    3.3,    2.8,    1.1,    0.5,   -0.1,   -0.5,   -1.2,   -1.3,   -2.2,   -2.5,   -3.6,   -2.2,  999.0,  999.0,  999.0,  999.0,    3.4,    4.0,    4.2,    4.3,    4.0,    4.0,    4.1,    4.2,    4.2,    4.3,    4.0,    3.5,    2.9,    2.0,    0.8,    0.1,   -0.8,   -2.1,   -3.8,   -4.7,   -4.9,   -4.9,   -4.5,   -4.0,   -4.1,   -4.3,   -4.5,   -4.8,   -5.1,   -5.1,   -5.2,   -4.9,   -4.7,   -4.5,   -4.7,   -5.4,   -5.8,   -6.2,   -7.1,   -7.5,   -7.4,   -7.7,   -8.0,   -7.8,   -8.0,   -8.1,   -8.1,   -8.2,   -8.7,   -9.0,   -9.2,   -9.4
2008/10/01 22:30,  999.0,    3.6,    4.5,    5.4,    6.6,    8.8,    8.2,    8.3,    9.0,   10.6,  999.0,  999.0,  999.0,  999.0,  999.0,  999.0,  999.0,  999.0,  999.0,    6.6,    5.7,    4.4,    2.7,    2.0,    2.6,    2.2,    1.9,    2.4,    2.1,    2.6,    2.2,    2.2,    1.8,    1.7,    1.8,    1.2,    0.7,    1.4,    1.2,    2.0,    2.7,    2.5,  999.0,  999.0,  999.0,  999.0,    4.2,    3.9,    3.6,    3.4,    3.6,    3.9,    4.2,    3.9,    3.9,    3.7,    3.4,    2.7,    1.9,    1.2,    0.6,   -0.2,   -0.9,   -2.0,   -3.2,   -3.9,   -4.0,   -4.3,   -4.2,   -3.9,   -3.7,   -3.9,   -4.3,   -4.6,   -4.9,   -5.3,   -5.6,   -5.5,   -5.4,   -5.2,   -5.1,   -4.8,   -5.1,   -5.5,   -6.0,   -6.7,   -7.5,   -7.8,   -8.2,   -8.5,   -8.5,   -8.6,   -8.9,   -9.3,   -9.5,   -9.2,   -9.3,   -9.9,   -9.8
2008/10/01 22:40,  999.0,    4.4,    5.2,    6.0,    6.8,    8.3,    8.8,    8.4,    8.7,   11.0,   11.4,   11.0,   10.8,   11.0,  999.0,   10.6,   10.3,    9.0,    7.6,    7.6,    7.0,    5.5,    4.1,    3.3,    2.9,    3.2,    2.7,    2.8,    2.4,    4.2,  999.0,    4.5,    4.0,    3.3,    2.5,    2.8,  999.0,  999.0,  999.0,  999.0,  999.0,  999.0,  999.0,  999.0,  999.0,  999.0,  999.0,    3.4,    3.5,    3.1,    2.9,    2.8,    2.7,    2.7,    2.9,    3.2,    3.3,    3.2,    3.0,    2.2,    0.1,   -1.3,   -2.4,   -3.6,   -4.3,   -4.2,   -3.8,   -4.1,   -4.0,   -3.8,   -3.7,   -4.0,   -4.4,   -4.9,   -5.3,   -5.7,   -6.1,   -6.6,   -6.8,   -6.6,   -6.1,   -5.7,   -5.8,   -6.0,   -6.2,   -6.4,   -7.0,   -7.5,   -7.8,   -8.1,   -8.7,   -9.0,   -9.2,   -9.4,   -9.6,   -9.5,   -9.7,  -10.3,  -10.7
2008/10/01 22:50,  999.0,    3.6,    4.3,    5.7,    6.5,    7.9,    8.8,    9.2,   10.0,   11.8,   11.7,   11.8,   10.7,   10.7,   10.4,   10.1,    9.4,    8.6,    7.7,    8.3,    7.1,    6.8,    6.7,    6.8,    5.6,    5.1,    4.6,    3.5,    3.6,    3.8,    3.8,    2.5,    1.2,    1.4,    1.5,    2.1,    3.8,    4.1,    4.1,    4.1,  999.0,    1.2,   -0.7,  999.0,  999.0,  999.0,   -1.9,   -1.2,   -1.3,   -1.9,   -2.3,   -2.3,   -2.9,   -2.6,   -1.5,   -1.6,   -1.0,   -0.8,   -0.8,   -0.5,   -0.9,   -1.5,   -2.3,   -3.9,   -4.5,   -4.4,   -4.3,   -4.4,   -4.3,   -3.9,   -3.6,   -3.9,   -4.4,   -5.1,   -5.7,   -6.2,   -6.6,   -6.9,   -7.0,   -6.9,   -6.7,   -6.5,   -6.5,   -6.8,   -7.1,   -7.2,   -7.5,   -8.1,   -8.3,   -8.3,   -8.6,   -9.2,   -9.5,   -9.4,   -9.7,   -9.4,  -10.0,  -10.7,  999.0
2008/10/01 23:00,    1.8,    3.2,    3.6,    5.1,    5.7,    7.2,    9.0,    9.4,   10.7,   11.9,   13.2,   12.9,   13.0,   13.0,   11.8,   10.8,    9.4,    8.9,    8.1,    7.0,    6.2,    6.5,    7.2,    6.9,    7.1,    6.4,    4.9,    2.9,    2.7,    3.0,    4.2,    1.8,    1.2,    2.0,    2.9,    3.3,    4.6,    3.0,    1.7,   -0.3,   -1.1,   -0.9,   -0.0,  999.0,   -0.9,   -1.9,   -2.4,   -2.6,   -2.8,   -3.1,   -3.4,   -4.0,   -3.9,   -3.8,   -4.3,   -3.6,   -3.3,   -2.8,   -1.6,   -1.5,   -2.2,   -3.2,   -4.3,   -4.8,   -4.8,   -4.4,   -4.3,   -4.5,   -4.5,   -4.5,   -4.0,   -4.0,   -4.7,   -5.3,   -5.8,   -6.0,   -6.4,   -6.9,   -7.1,   -7.1,   -7.0,   -7.1,   -7.2,   -7.5,   -7.5,   -7.6,   -7.6,   -7.9,   -8.4,   -8.6,   -8.8,   -9.2,   -9.6,   -9.7,   -9.8,  -10.2,  999.0,  999.0,  999.0
2008/10/01 23:10,  999.0,  999.0,  999.0,    5.8,    6.2,    8.5,    9.7,    9.8,   11.2,   12.2,   12.7,   12.2,   11.8,   12.2,   11.2,   10.0,    8.6,    8.1,    7.3,    6.9,    6.4,    6.2,    6.1,    7.1,    7.3,    7.3,    6.2,    3.5,    1.9,    1.4,    1.2,    0.7,    0.7,    0.9,    1.6,    2.0,    1.8,    0.8,   -0.9,   -2.2,   -2.3,   -2.4,  999.0,  999.0,  999.0,   -1.4,   -1.4,   -1.7,   -2.0,   -2.3,   -2.7,   -3.5,   -3.8,   -4.1,   -3.8,   -3.0,   -2.3,   -2.0,   -2.4,   -3.2,   -3.8,   -4.3,   -4.5,   -4.4,   -4.1,   -4.0,   -4.5,   -5.2,   -5.2,   -5.1,   -4.9,   -5.3,   -5.7,   -6.2,   -6.5,   -6.7,   -7.3,   -7.5,   -7.7,   -7.7,   -7.7,   -7.5,   -7.2,   -7.3,   -7.6,   -7.6,   -7.6,   -7.6,   -7.9,   -8.3,   -8.4,   -8.6,   -9.0,   -9.5,  999.0,  999.0,  999.0,  999.0,  999.0
2008/10/01 23:20,  999.0,    3.3,    4.4,    5.2,    6.3,    8.1,    9.2,    9.1,   11.0,   11.7,   11.4,   10.5,   11.0,   10.0,    8.8,    8.9,    8.2,    8.1,    9.0,    9.4,    9.5,    9.5,    9.2,    9.0,    8.7,    8.2,    6.7,    4.9,    1.9,    2.2,    2.1,    1.7,    1.9,    1.9,    2.6,    2.9,    1.7,    0.2,   -1.2,   -1.6,   -1.4,  999.0,  999.0,  999.0,  999.0,  999.0,   -2.6,   -3.0,   -3.1,   -2.9,   -2.9,   -3.2,   -4.5,   -4.8,   -3.6,   -2.5,   -1.8,   -1.6,   -3.9,   -4.4,   -4.6,   -4.7,   -4.9,   -5.1,   -5.0,   -5.0,   -5.3,   -5.5,   -5.6,   -5.6,   -5.7,   -6.1,   -6.6,   -6.9,   -7.2,   -7.6,   -8.0,   -8.4,   -8.3,   -8.1,   -8.1,   -8.3,   -8.3,   -7.8,   -7.8,   -7.8,   -7.8,   -7.8,   -8.2,   -8.4,   -8.7,   -8.7,   -8.9,   -9.2,   -9.2,   -9.0,   -9.4,   -9.5,  999.0
2008/10/01 23:30,  999.0,    3.4,    4.0,    5.4,    6.5,    8.5,    8.7,    9.2,   10.3,    9.8,   10.2,   10.1,   11.1,   11.1,   10.0,    9.6,    9.4,    9.1,    8.9,    9.3,    9.6,    9.9,    9.5,   10.0,   10.4,    9.5,    7.7,    6.2,    4.2,    3.1,    2.8,    2.3,    2.4,    2.5,    2.8,    2.6,    0.9,   -0.7,   -1.2,   -1.4,   -1.5,   -1.2,   -1.8,  999.0,  999.0,   -2.8,   -2.7,   -2.7,   -3.1,   -3.1,   -4.2,   -4.4,   -5.4,   -6.5,   -7.2,  999.0,   -6.4,   -4.7,   -4.6,   -4.2,   -3.6,   -3.6,   -4.0,   -4.4,   -4.9,   -5.2,   -5.2,   -5.5,   -6.0,   -6.4,   -6.4,   -6.4,   -6.8,   -7.1,   -7.2,   -7.5,   -7.9,   -8.5,   -8.6,   -8.6,   -8.6,   -8.6,   -8.5,   -8.7,   -8.5,   -8.5,   -8.2,   -8.3,   -8.4,   -8.8,   -8.9,   -9.1,   -9.3,   -9.6,   -9.8,   -9.4,   -9.5,   -9.4,   -9.6
2008/10/01 23:40,    1.2,    2.6,    3.9,    5.4,    6.9,    8.5,    8.6,   10.0,   10.8,   10.4,   10.7,   10.5,   11.1,   11.3,   10.6,    9.9,    9.2,    8.5,    8.6,    8.7,    8.6,    9.3,    9.8,   10.0,    9.4,    8.6,    7.2,    5.8,    3.9,    1.4,    1.5,    1.4,    1.8,    1.9,    2.2,    1.5,    0.5,   -0.8,   -1.2,   -1.9,   -2.2,   -2.6,   -2.5,  999.0,  999.0,   -3.5,   -2.9,   -2.4,   -2.3,   -2.5,   -2.8,   -3.2,   -3.9,   -4.7,   -5.0,   -5.0,   -4.9,   -4.5,   -4.0,   -3.8,   -3.8,   -3.7,   -4.0,   -4.3,   -4.7,   -5.2,   -5.3,   -5.0,   -5.6,   -6.5,   -7.1,   -7.1,   -7.4,   -7.4,   -7.3,   -7.6,   -7.9,   -8.4,   -8.8,   -8.7,   -8.4,   -8.2,   -8.3,   -8.6,   -8.9,   -8.9,   -8.5,   -8.3,   -8.2,   -8.5,   -8.8,   -9.0,   -9.0,   -9.0,   -8.8,   -8.7,   -8.8,   -8.7,   -8.7
2008/10/01 23:50,  999.0,    7.2,    5.8,    4.9,    7.5,    8.7,    9.2,   10.0,   10.1,    9.7,   10.1,    9.7,    9.9,   10.2,    9.4,    9.3,    9.3,    9.8,    9.2,    9.2,    9.2,    9.6,    9.5,    9.9,    8.1,    7.7,    6.4,    4.5,    4.1,    2.1,    0.5,    0.5,    0.3,    0.4,    1.0,    0.6,   -0.1,   -1.4,   -2.4,   -2.5,   -2.3,   -2.6,   -3.0,  999.0,  999.0,   -4.1,   -3.8,   -3.1,   -2.6,   -2.9,   -3.3,   -3.5,   -4.1,   -4.7,   -5.2,   -5.4,   -5.2,   -5.0,   -5.2,   -5.0,   -4.8,   -4.9,   -5.1,   -5.5,   -5.8,   -6.0,   -5.9,   -5.3,   -5.2,   -6.4,   -7.8,   -8.4,   -8.7,   -8.7,   -8.0,   -7.9,   -8.3,   -8.7,   -9.0,   -9.0,   -8.9,   -8.5,   -8.4,   -8.5,   -8.8,   -8.7,   -8.7,   -8.6,   -8.6,   -8.6,   -8.8,   -9.1,   -9.2,   -9.4,   -9.1,   -8.8,   -8.3,   -8.2,   -8.4
